Wetterdaten: Donnerstag, 01.03.2018
Datum Zeit Temp. Aussen Temp. o. S. +5cm Feuchte Auss BlattFeu 1 Luftdruck Regen Sonnenschein Regendauer Solar Windben Empfang
01.03.2018 00:00 -7,7 C -7,8 C -8,3 C 68 % 0 lf 1014,1 hPa 0,0 l/m 0 min 0 min 0 W/m 20,3 km/h (4 Bft) 97,87 %
01.03.2018 00:02 -7,7 C -7,8 C -8,3 C 68 % 0 lf 1014,1 hPa 0,0 l/m 0 min 0 min 0 W/m 24,8 km/h (4 Bft) 100,00 %
01.03.2018 00:04 -7,7 C -7,8 C -8,3 C 68 % 0 lf 1014,0 hPa 0,0 l/m 0 min 0 min 0 W/m 22,5 km/h (4 Bft) 97,83 %
01.03.2018 00:07 -7,7 C -7,8 C -8,3 C 68 % 0 lf 1014,0 hPa 0,0 l/m 0 min 0 min 0 W/m 29,3 km/h (5 Bft) 97,83 %
01.03.2018 00:08 -7,7 C -7,8 C -8,3 C 68 % 0 lf 1013,9 hPa 0,0 l/m 0 min 0 min 0 W/m 29,3 km/h (5 Bft) 97,83 %
01.03.2018 00:10 -7,7 C -7,8 C -8,3 C 68 % 0 lf 1014,0 hPa 0,0 l/m 0 min 0 min 0 W/m 29,3 km/h (5 Bft) 97,83 %
01.03.2018 00:12 -7,7 C -7,8 C -8,3 C 68 % 0 lf 1013,9 hPa 0,0 l/m 0 min 0 min 0 W/m 29,3 km/h (5 Bft) 97,83 %
01.03.2018 00:14 -7,7 C -7,8 C -8,3 C 68 % 0 lf 1013,9 hPa 0,0 l/m 0 min 0 min 0 W/m 29,3 km/h (5 Bft) 100,00 %
01.03.2018 00:16 -7,7 C -7,8 C -8,3 C 68 % 0 lf 1013,9 hPa 0,0 l/m 0 min 0 min 0 W/m 22,5 km/h (4 Bft) 97,83 %
01.03.2018 00:18 -7,7 C -7,8 C -8,3 C 68 % 0 lf 1013,8 hPa 0,0 l/m 0 min 0 min 0 W/m 24,8 km/h (4 Bft) 97,87 %
01.03.2018 00:20 -7,7 C -7,8 C -8,3 C 68 % 0 lf 1013,7 hPa 0,0 l/m 0 min 0 min 0 W/m 31,5 km/h (5 Bft) 97,87 %
01.03.2018 00:22 -7,7 C -7,8 C -8,3 C 68 % 0 lf 1013,8 hPa 0,0 l/m 0 min 0 min 0 W/m 20,3 km/h (4 Bft) 97,87 %
01.03.2018 00:24 -7,7 C -7,8 C -8,3 C 68 % 0 lf 1013,8 hPa 0,0 l/m 0 min 0 min 0 W/m 31,5 km/h (5 Bft) 97,87 %
01.03.2018 00:26 -7,7 C -7,8 C -8,3 C 68 % 0 lf 1013,7 hPa 0,0 l/m 0 min 0 min 0 W/m 22,5 km/h (4 Bft) 97,87 %
01.03.2018 00:28 -7,7 C -7,8 C -8,3 C 68 % 0 lf 1013,7 hPa 0,0 l/m 0 min 0 min 0 W/m 22,5 km/h (4 Bft) 97,83 %
01.03.2018 00:30 -7,7 C -7,8 C -8,3 C 69 % 0 lf 1013,7 hPa 0,0 l/m 0 min 0 min 0 W/m 18,0 km/h (3 Bft) 93,62 %
01.03.2018 00:32 -7,7 C -7,8 C -8,3 C 69 % 0 lf 1013,6 hPa 0,0 l/m 0 min 0 min 0 W/m 22,5 km/h (4 Bft) 95,74 %
01.03.2018 00:34 -7,7 C -7,8 C -8,3 C 68 % 0 lf 1013,5 hPa 0,0 l/m 0 min 0 min 0 W/m 22,5 km/h (4 Bft) 95,74 %
01.03.2018 00:38 -7,7 C -7,8 C -8,3 C 68 % 0 lf 1013,4 hPa 0,0 l/m 0 min 0 min 0 W/m 33,8 km/h (5 Bft) 95,74 %
01.03.2018 00:40 -7,7 C -7,8 C -8,3 C 68 % 0 lf 1013,4 hPa 0,0 l/m 0 min 0 min 0 W/m 31,5 km/h (5 Bft) 93,48 %
01.03.2018 00:42 -7,7 C -7,8 C -8,3 C 69 % 0 lf 1013,4 hPa 0,0 l/m 0 min 0 min 0 W/m 24,8 km/h (4 Bft) 95,74 %
01.03.2018 00:44 -7,6 C -7,8 C -8,3 C 69 % 0 lf 1013,3 hPa 0,0 l/m 0 min 0 min 0 W/m 22,5 km/h (4 Bft) 95,74 %
01.03.2018 00:46 -7,6 C -7,8 C -8,3 C 69 % 0 lf 1013,3 hPa 0,0 l/m 0 min 0 min 0 W/m 36,0 km/h (5 Bft) 95,74 %
01.03.2018 00:48 -7,6 C -7,8 C -8,3 C 69 % 0 lf 1013,2 hPa 0,0 l/m 0 min 0 min 0 W/m 24,8 km/h (4 Bft) 93,62 %
01.03.2018 00:50 -7,6 C -7,8 C -8,3 C 69 % 0 lf 1013,2 hPa 0,0 l/m 0 min 0 min 0 W/m 18,0 km/h (3 Bft) 93,62 %
01.03.2018 00:52 -7,6 C -7,8 C -8,3 C 68 % 0 lf 1013,1 hPa 0,0 l/m 0 min 0 min 0 W/m 20,3 km/h (4 Bft) 93,48 %
01.03.2018 00:54 -7,6 C -7,8 C -8,3 C 69 % 0 lf 1013,2 hPa 0,0 l/m 0 min 0 min 0 W/m 36,0 km/h (5 Bft) 95,74 %
01.03.2018 00:56 -7,6 C -7,8 C -8,3 C 69 % 0 lf 1013,2 hPa 0,0 l/m 0 min 0 min 0 W/m 22,5 km/h (4 Bft) 93,62 %
01.03.2018 00:58 -7,7 C -7,8 C -8,3 C 69 % 0 lf 1013,2 hPa 0,0 l/m 0 min 0 min 0 W/m 22,5 km/h (4 Bft) 95,74 %
01.03.2018 01:00 -7,7 C -7,8 C -8,3 C 69 % 0 lf 1013,2 hPa 0,0 l/m 0 min 0 min 0 W/m 31,5 km/h (5 Bft) 95,74 %
01.03.2018 01:02 -7,7 C -7,8 C -8,9 C 68 % 0 lf 1013,2 hPa 0,0 l/m 0 min 0 min 0 W/m 24,8 km/h (4 Bft) 93,62 %
01.03.2018 01:04 -7,7 C -7,8 C -8,9 C 68 % 0 lf 1013,2 hPa 0,0 l/m 0 min 0 min 0 W/m 24,8 km/h (4 Bft) 91,30 %
01.03.2018 01:08 -7,7 C -7,8 C -8,9 C 68 % 0 lf 1013,2 hPa 0,0 l/m 0 min 0 min 0 W/m 24,8 km/h (4 Bft) 97,87 %
01.03.2018 01:10 -7,7 C -7,8 C -8,9 C 68 % 0 lf 1013,2 hPa 0,0 l/m 0 min 0 min 0 W/m 22,5 km/h (4 Bft) 95,74 %
01.03.2018 01:12 -7,7 C -7,8 C -8,9 C 68 % 0 lf 1013,1 hPa 0,0 l/m 0 min 0 min 0 W/m 24,8 km/h (4 Bft) 97,87 %
01.03.2018 01:14 -7,7 C -7,8 C -8,9 C 68 % 0 lf 1013,1 hPa 0,0 l/m 0 min 0 min 0 W/m 20,3 km/h (4 Bft) 100,00 %
01.03.2018 01:16 -7,7 C -7,8 C -8,9 C 68 % 0 lf 1013,1 hPa 0,0 l/m 0 min 0 min 0 W/m 24,8 km/h (4 Bft) 93,62 %
01.03.2018 01:18 -7,7 C -7,8 C -8,9 C 68 % 0 lf 1013,1 hPa 0,0 l/m 0 min 0 min 0 W/m 31,5 km/h (5 Bft) 93,62 %
01.03.2018 01:20 -7,7 C -7,8 C -8,9 C 68 % 0 lf 1013,2 hPa 0,0 l/m 0 min 0 min 0 W/m 18,0 km/h (3 Bft) 97,87 %
01.03.2018 01:22 -7,7 C -7,8 C -8,9 C 68 % 0 lf 1013,1 hPa 0,0 l/m 0 min 0 min 0 W/m 18,0 km/h (3 Bft) 95,74 %
01.03.2018 01:24 -7,7 C -7,8 C -8,9 C 68 % 0 lf 1013,1 hPa 0,0 l/m 0 min 0 min 0 W/m 20,3 km/h (4 Bft) 95,74 %
01.03.2018 01:26 -7,7 C -7,8 C -8,9 C 68 % 0 lf 1013,1 hPa 0,0 l/m 0 min 0 min 0 W/m 24,8 km/h (4 Bft) 97,83 %
01.03.2018 01:28 -7,7 C -7,8 C -8,9 C 68 % 0 lf 1013,1 hPa 0,0 l/m 0 min 0 min 0 W/m 24,8 km/h (4 Bft) 91,49 %
01.03.2018 01:30 -7,7 C -7,8 C -8,9 C 69 % 0 lf 1013,1 hPa 0,0 l/m 0 min 0 min 0 W/m 24,8 km/h (4 Bft) 91,49 %
01.03.2018 01:32 -7,7 C -7,8 C -8,9 C 69 % 0 lf 1013,1 hPa 0,0 l/m 0 min 0 min 0 W/m 22,5 km/h (4 Bft) 97,87 %
01.03.2018 01:34 -7,7 C -7,8 C -8,9 C 69 % 0 lf 1012,9 hPa 0,0 l/m 0 min 0 min 0 W/m 18,0 km/h (3 Bft) 97,87 %
01.03.2018 01:36 -7,7 C -7,8 C -8,9 C 68 % 0 lf 1012,9 hPa 0,0 l/m 0 min 0 min 0 W/m 24,8 km/h (4 Bft) 95,74 %
01.03.2018 01:38 -7,7 C -7,8 C -8,9 C 68 % 0 lf 1012,8 hPa 0,0 l/m 0 min 0 min 0 W/m 22,5 km/h (4 Bft) 95,65 %
01.03.2018 01:40 -7,7 C -7,8 C -8,9 C 69 % 0 lf 1012,8 hPa 0,0 l/m 0 min 0 min 0 W/m 31,5 km/h (5 Bft) 95,74 %
01.03.2018 01:42 -7,7 C -7,8 C -8,9 C 69 % 0 lf 1012,8 hPa 0,0 l/m 0 min 0 min 0 W/m 22,5 km/h (4 Bft) 93,62 %
01.03.2018 01:44 -7,7 C -7,8 C -8,9 C 69 % 0 lf 1012,7 hPa 0,0 l/m 0 min 0 min 0 W/m 29,3 km/h (5 Bft) 95,74 %
01.03.2018 01:46 -7,7 C -7,8 C -8,9 C 69 % 0 lf 1012,8 hPa 0,0 l/m 0 min 0 min 0 W/m 29,3 km/h (5 Bft) 91,49 %
01.03.2018 01:48 -7,7 C -7,8 C -8,9 C 69 % 0 lf 1012,8 hPa 0,0 l/m 0 min 0 min 0 W/m 20,3 km/h (4 Bft) 91,49 %
01.03.2018 01:50 -7,7 C -7,8 C -8,9 C 69 % 0 lf 1012,7 hPa 0,0 l/m 0 min 0 min 0 W/m 22,5 km/h (4 Bft) 95,65 %
01.03.2018 01:52 -7,7 C -7,8 C -8,9 C 69 % 0 lf 1012,6 hPa 0,0 l/m 0 min 0 min 0 W/m 18,0 km/h (3 Bft) 95,74 %
01.03.2018 01:54 -7,7 C -7,8 C -8,9 C 69 % 0 lf 1012,6 hPa 0,0 l/m 0 min 0 min 0 W/m 29,3 km/h (5 Bft) 95,74 %
01.03.2018 01:56 -7,7 C -7,8 C -8,9 C 69 % 0 lf 1012,6 hPa 0,0 l/m 0 min 0 min 0 W/m 27,0 km/h (4 Bft) 89,36 %
01.03.2018 01:58 -7,7 C -7,8 C -8,9 C 69 % 0 lf 1012,6 hPa 0,0 l/m 0 min 0 min 0 W/m 33,8 km/h (5 Bft) 95,74 %
01.03.2018 02:00 -7,7 C -7,8 C -8,9 C 69 % 0 lf 1012,6 hPa 0,0 l/m 0 min 0 min 0 W/m 22,5 km/h (4 Bft) 95,74 %
01.03.2018 02:02 -7,7 C -7,8 C -8,9 C 69 % 0 lf 1012,7 hPa 0,0 l/m 0 min 0 min 0 W/m 29,3 km/h (5 Bft) 95,74 %
01.03.2018 02:04 -7,7 C -7,8 C -8,9 C 69 % 0 lf 1012,6 hPa 0,0 l/m 0 min 0 min 0 W/m 24,8 km/h (4 Bft) 93,62 %
01.03.2018 02:06 -7,7 C -7,8 C -8,9 C 69 % 0 lf 1012,6 hPa 0,0 l/m 0 min 0 min 0 W/m 24,8 km/h (4 Bft) 93,62 %
01.03.2018 02:08 -7,7 C -7,8 C -8,9 C 69 % 0 lf 1012,7 hPa 0,0 l/m 0 min 0 min 0 W/m 22,5 km/h (4 Bft) 93,62 %
01.03.2018 02:10 -7,7 C -7,8 C -8,9 C 69 % 0 lf 1012,6 hPa 0,0 l/m 0 min 0 min 0 W/m 22,5 km/h (4 Bft) 95,74 %
01.03.2018 02:12 -7,7 C -7,8 C -8,9 C 69 % 0 lf 1012,6 hPa 0,0 l/m 0 min 0 min 0 W/m 27,0 km/h (4 Bft) 93,48 %
01.03.2018 02:14 -7,7 C -7,8 C -8,9 C 69 % 0 lf 1012,6 hPa 0,0 l/m 0 min 0 min 0 W/m 15,8 km/h (3 Bft) 93,62 %
01.03.2018 02:16 -7,7 C -7,8 C -8,9 C 69 % 0 lf 1012,6 hPa 0,0 l/m 0 min 0 min 0 W/m 22,5 km/h (4 Bft) 91,49 %
01.03.2018 02:18 -7,7 C -7,8 C -8,9 C 69 % 0 lf 1012,7 hPa 0,0 l/m 0 min 0 min 0 W/m 29,3 km/h (5 Bft) 97,87 %
01.03.2018 02:20 -7,7 C -7,8 C -8,9 C 69 % 0 lf 1012,5 hPa 0,0 l/m 0 min 0 min 0 W/m 22,5 km/h (4 Bft) 93,62 %
01.03.2018 02:22 -7,7 C -7,8 C -8,9 C 68 % 0 lf 1012,5 hPa 0,0 l/m 0 min 0 min 0 W/m 22,5 km/h (4 Bft) 97,87 %
01.03.2018 02:24 -7,7 C -7,8 C -8,9 C 68 % 0 lf 1012,5 hPa 0,0 l/m 0 min 0 min 0 W/m 22,5 km/h (4 Bft) 95,65 %
01.03.2018 02:26 -7,7 C -7,8 C -8,9 C 68 % 0 lf 1012,4 hPa 0,0 l/m 0 min 0 min 0 W/m 24,8 km/h (4 Bft) 95,74 %
01.03.2018 02:28 -7,7 C -7,8 C -8,9 C 68 % 0 lf 1012,5 hPa 0,0 l/m 0 min 0 min 0 W/m 24,8 km/h (4 Bft) 95,74 %
01.03.2018 02:30 -7,7 C -7,8 C -8,9 C 68 % 0 lf 1012,5 hPa 0,0 l/m 0 min 0 min 0 W/m 29,3 km/h (5 Bft) 93,62 %
01.03.2018 02:32 -7,7 C -7,8 C -8,9 C 69 % 0 lf 1012,4 hPa 0,0 l/m 0 min 0 min 0 W/m 27,0 km/h (4 Bft) 95,74 %
01.03.2018 02:34 -7,7 C -7,8 C -8,9 C 68 % 0 lf 1012,3 hPa 0,0 l/m 0 min 0 min 0 W/m 22,5 km/h (4 Bft) 97,87 %
01.03.2018 02:38 -7,7 C -7,8 C -8,9 C 68 % 0 lf 1012,2 hPa 0,0 l/m 0 min 0 min 0 W/m 27,0 km/h (4 Bft) 96,77 %
01.03.2018 02:40 -7,7 C -7,8 C -8,9 C 68 % 0 lf 1012,2 hPa 0,0 l/m 0 min 0 min 0 W/m 29,3 km/h (5 Bft) 97,87 %
01.03.2018 02:42 -7,7 C -7,8 C -8,9 C 68 % 0 lf 1012,1 hPa 0,0 l/m 0 min 0 min 0 W/m 31,5 km/h (5 Bft) 97,87 %
01.03.2018 02:44 -7,7 C -7,8 C -8,9 C 68 % 0 lf 1012,1 hPa 0,0 l/m 0 min 0 min 0 W/m 33,8 km/h (5 Bft) 97,87 %
01.03.2018 02:46 -7,7 C -7,8 C -8,9 C 68 % 0 lf 1012,0 hPa 0,0 l/m 0 min 0 min 0 W/m 33,8 km/h (5 Bft) 97,87 %
01.03.2018 02:48 -7,7 C -7,8 C -8,9 C 68 % 0 lf 1012,0 hPa 0,0 l/m 0 min 0 min 0 W/m 33,8 km/h (5 Bft) 95,65 %
01.03.2018 02:50 -7,7 C -7,8 C -8,9 C 68 % 0 lf 1012,0 hPa 0,0 l/m 0 min 0 min 0 W/m 29,3 km/h (5 Bft) 100,00 %
01.03.2018 02:52 -7,7 C -7,8 C -8,9 C 68 % 0 lf 1012,0 hPa 0,0 l/m 0 min 0 min 0 W/m 24,8 km/h (4 Bft) 95,74 %
01.03.2018 02:54 -7,7 C -7,8 C -8,9 C 68 % 0 lf 1012,0 hPa 0,0 l/m 0 min 0 min 0 W/m 29,3 km/h (5 Bft) 95,74 %
01.03.2018 02:56 -7,7 C -7,8 C -8,9 C 68 % 0 lf 1012,0 hPa 0,0 l/m 0 min 0 min 0 W/m 27,0 km/h (4 Bft) 100,00 %
01.03.2018 02:58 -7,7 C -7,8 C -8,9 C 68 % 0 lf 1011,9 hPa 0,0 l/m 0 min 0 min 0 W/m 22,5 km/h (4 Bft) 100,00 %
01.03.2018 03:00 -7,7 C -7,8 C -8,9 C 68 % 0 lf 1011,9 hPa 0,0 l/m 0 min 0 min 0 W/m 24,8 km/h (4 Bft) 100,00 %
01.03.2018 03:02 -7,7 C -7,8 C -8,9 C 68 % 0 lf 1011,9 hPa 0,0 l/m 0 min 0 min 0 W/m 31,5 km/h (5 Bft) 100,00 %
01.03.2018 03:04 -7,7 C -7,8 C -8,9 C 68 % 0 lf 1011,8 hPa 0,0 l/m 0 min 0 min 0 W/m 31,5 km/h (5 Bft) 97,87 %
01.03.2018 03:08 -7,7 C -7,8 C -8,9 C 68 % 0 lf 1011,8 hPa 0,0 l/m 0 min 0 min 0 W/m 29,3 km/h (5 Bft) 100,00 %
01.03.2018 03:10 -7,7 C -7,8 C -8,9 C 68 % 0 lf 1011,8 hPa 0,0 l/m 0 min 0 min 0 W/m 22,5 km/h (4 Bft) 100,00 %
01.03.2018 03:12 -7,7 C -7,8 C -8,9 C 68 % 0 lf 1011,7 hPa 0,0 l/m 0 min 0 min 0 W/m 29,3 km/h (5 Bft) 97,83 %
01.03.2018 03:14 -7,7 C -8,3 C -8,9 C 69 % 0 lf 1011,7 hPa 0,0 l/m 0 min 0 min 0 W/m 29,3 km/h (5 Bft) 100,00 %
01.03.2018 03:16 -7,7 C -7,8 C -8,9 C 68 % 0 lf 1011,6 hPa 0,0 l/m 0 min 0 min 0 W/m 20,3 km/h (4 Bft) 100,00 %
01.03.2018 03:18 -7,7 C -7,8 C -8,9 C 68 % 0 lf 1011,5 hPa 0,0 l/m 0 min 0 min 0 W/m 20,3 km/h (4 Bft) 100,00 %
01.03.2018 03:20 -7,8 C -7,8 C -8,9 C 68 % 0 lf 1011,5 hPa 0,0 l/m 0 min 0 min 0 W/m 31,5 km/h (5 Bft) 100,00 %
01.03.2018 03:22 -7,8 C -7,8 C -8,9 C 68 % 0 lf 1011,4 hPa 0,0 l/m 0 min 0 min 0 W/m 24,8 km/h (4 Bft) 97,22 %
01.03.2018 03:24 -7,8 C -7,8 C -8,9 C 68 % 0 lf 1011,4 hPa 0,0 l/m 0 min 0 min 0 W/m 29,3 km/h (5 Bft) 95,65 %
01.03.2018 03:26 -7,8 C -7,8 C -8,9 C 68 % 0 lf 1011,3 hPa 0,0 l/m 0 min 0 min 0 W/m 24,8 km/h (4 Bft) 95,74 %
01.03.2018 03:28 -7,8 C -7,8 C -8,9 C 68 % 0 lf 1011,2 hPa 0,0 l/m 0 min 0 min 0 W/m 20,3 km/h (4 Bft) 93,62 %
01.03.2018 03:30 -7,8 C -7,8 C -8,9 C 68 % 0 lf 1011,0 hPa 0,0 l/m 0 min 0 min 0 W/m 29,3 km/h (5 Bft) 95,74 %
01.03.2018 03:32 -7,8 C -7,8 C -8,9 C 68 % 0 lf 1011,1 hPa 0,0 l/m 0 min 0 min 0 W/m 24,8 km/h (4 Bft) 97,87 %
01.03.2018 03:34 -7,8 C -7,8 C -8,9 C 68 % 0 lf 1011,0 hPa 0,0 l/m 0 min 0 min 0 W/m 22,5 km/h (4 Bft) 97,87 %
01.03.2018 03:38 -7,8 C -7,8 C -8,9 C 69 % 0 lf 1011,0 hPa 0,0 l/m 0 min 0 min 0 W/m 29,3 km/h (5 Bft) 96,77 %
01.03.2018 03:40 -7,8 C -7,8 C -8,9 C 68 % 0 lf 1011,0 hPa 0,0 l/m 0 min 0 min 0 W/m 29,3 km/h (5 Bft) 95,74 %
01.03.2018 03:42 -7,8 C -7,8 C -8,9 C 68 % 0 lf 1011,0 hPa 0,0 l/m 0 min 0 min 0 W/m 20,3 km/h (4 Bft) 93,62 %
01.03.2018 03:44 -7,8 C -7,8 C -8,9 C 68 % 0 lf 1011,0 hPa 0,0 l/m 0 min 0 min 0 W/m 29,3 km/h (5 Bft) 95,74 %
01.03.2018 03:46 -7,8 C -7,8 C -8,9 C 68 % 0 lf 1011,0 hPa 0,0 l/m 0 min 0 min 0 W/m 31,5 km/h (5 Bft) 95,65 %
01.03.2018 03:48 -7,8 C -7,8 C -8,9 C 68 % 0 lf 1011,0 hPa 0,0 l/m 0 min 0 min 0 W/m 38,3 km/h (5 Bft) 95,74 %
01.03.2018 03:50 -7,8 C -7,8 C -8,9 C 68 % 0 lf 1010,9 hPa 0,0 l/m 0 min 0 min 0 W/m 29,3 km/h (5 Bft) 96,67 %
01.03.2018 03:52 -7,8 C -7,8 C -8,9 C 68 % 0 lf 1010,9 hPa 0,0 l/m 0 min 0 min 0 W/m 29,3 km/h (5 Bft) 91,43 %
01.03.2018 03:54 -7,8 C -7,8 C -8,9 C 68 % 0 lf 1010,8 hPa 0,0 l/m 0 min 0 min 0 W/m 20,3 km/h (4 Bft) 97,87 %
01.03.2018 03:56 -7,7 C -7,8 C -8,9 C 68 % 0 lf 1010,8 hPa 0,0 l/m 0 min 0 min 0 W/m 20,3 km/h (4 Bft) 95,74 %
01.03.2018 03:58 -7,7 C -7,8 C -8,9 C 68 % 0 lf 1010,8 hPa 0,0 l/m 0 min 0 min 0 W/m 20,3 km/h (4 Bft) 95,65 %
01.03.2018 04:00 -7,7 C -7,8 C -8,9 C 68 % 0 lf 1010,8 hPa 0,0 l/m 0 min 0 min 0 W/m 27,0 km/h (4 Bft) 93,62 %
01.03.2018 04:05 -7,7 C -7,8 C -8,9 C 68 % 0 lf 1010,7 hPa 0,0 l/m 0 min 0 min 0 W/m 20,3 km/h (4 Bft) 95,00 %
01.03.2018 04:06 -7,8 C -7,8 C -8,9 C 68 % 0 lf 1010,7 hPa 0,0 l/m 0 min 0 min 0 W/m 22,5 km/h (4 Bft) 91,30 %
01.03.2018 04:08 -7,8 C -7,8 C -8,9 C 68 % 0 lf 1010,7 hPa 0,0 l/m 0 min 0 min 0 W/m 29,3 km/h (5 Bft) 95,74 %
01.03.2018 04:10 -7,8 C -8,3 C -8,9 C 68 % 0 lf 1010,7 hPa 0,0 l/m 0 min 0 min 0 W/m 24,8 km/h (4 Bft) 95,65 %
01.03.2018 04:12 -7,8 C -8,3 C -8,9 C 69 % 0 lf 1010,6 hPa 0,0 l/m 0 min 0 min 0 W/m 20,3 km/h (4 Bft) 93,62 %
01.03.2018 04:14 -7,8 C -8,3 C -8,9 C 69 % 0 lf 1010,6 hPa 0,0 l/m 0 min 0 min 0 W/m 24,8 km/h (4 Bft) 93,62 %
01.03.2018 04:16 -7,8 C -8,3 C -8,9 C 69 % 0 lf 1010,7 hPa 0,0 l/m 0 min 0 min 0 W/m 22,5 km/h (4 Bft) 91,49 %
01.03.2018 04:18 -7,8 C -8,3 C -8,9 C 69 % 0 lf 1010,6 hPa 0,0 l/m 0 min 0 min 0 W/m 24,8 km/h (4 Bft) 95,74 %
01.03.2018 04:20 -7,8 C -8,3 C -8,9 C 69 % 0 lf 1010,6 hPa 0,0 l/m 0 min 0 min 0 W/m 20,3 km/h (4 Bft) 94,83 %
01.03.2018 04:22 -7,8 C -8,3 C -8,9 C 69 % 0 lf 1010,7 hPa 0,0 l/m 0 min 0 min 0 W/m 18,0 km/h (3 Bft) 94,29 %
01.03.2018 04:24 -7,8 C -8,3 C -8,9 C 69 % 0 lf 1010,7 hPa 0,0 l/m 0 min 0 min 0 W/m 11,3 km/h (2 Bft) 93,62 %
01.03.2018 04:26 -7,8 C -8,3 C -9,4 C 69 % 0 lf 1010,6 hPa 0,0 l/m 0 min 0 min 0 W/m 18,0 km/h (3 Bft) 93,62 %
01.03.2018 04:28 -7,8 C -8,3 C -9,4 C 69 % 0 lf 1010,6 hPa 0,0 l/m 0 min 0 min 0 W/m 20,3 km/h (4 Bft) 91,49 %
01.03.2018 04:30 -7,9 C -8,3 C -9,4 C 69 % 0 lf 1010,5 hPa 0,0 l/m 0 min 0 min 0 W/m 18,0 km/h (3 Bft) 95,74 %
01.03.2018 04:32 -7,9 C -8,3 C -8,9 C 69 % 0 lf 1010,5 hPa 0,0 l/m 0 min 0 min 0 W/m 22,5 km/h (4 Bft) 95,74 %
01.03.2018 04:34 -7,9 C -8,3 C -8,9 C 69 % 0 lf 1010,5 hPa 0,0 l/m 0 min 0 min 0 W/m 18,0 km/h (3 Bft) 97,83 %
01.03.2018 04:36 -7,9 C -8,3 C -8,9 C 69 % 0 lf 1010,5 hPa 0,0 l/m 0 min 0 min 0 W/m 15,8 km/h (3 Bft) 93,62 %
01.03.2018 04:38 -7,9 C -8,3 C -9,4 C 69 % 0 lf 1010,5 hPa 0,0 l/m 0 min 0 min 0 W/m 15,8 km/h (3 Bft) 97,87 %
01.03.2018 04:40 -7,9 C -8,3 C -9,4 C 69 % 0 lf 1010,5 hPa 0,0 l/m 0 min 0 min 0 W/m 22,5 km/h (4 Bft) 97,87 %
01.03.2018 04:42 -7,9 C -8,3 C -8,9 C 69 % 0 lf 1010,5 hPa 0,0 l/m 0 min 0 min 0 W/m 27,0 km/h (4 Bft) 95,74 %
01.03.2018 04:44 -7,9 C -8,3 C -8,9 C 69 % 0 lf 1010,4 hPa 0,0 l/m 0 min 0 min 0 W/m 15,8 km/h (3 Bft) 97,83 %
01.03.2018 04:46 -7,9 C -8,3 C -8,9 C 69 % 0 lf 1010,4 hPa 0,0 l/m 0 min 0 min 0 W/m 15,8 km/h (3 Bft) 97,87 %
01.03.2018 04:48 -7,9 C -8,3 C -8,9 C 69 % 0 lf 1010,4 hPa 0,0 l/m 0 min 0 min 0 W/m 22,5 km/h (4 Bft) 100,00 %
01.03.2018 04:50 -7,9 C -8,3 C -8,9 C 69 % 0 lf 1010,5 hPa 0,0 l/m 0 min 0 min 0 W/m 15,8 km/h (3 Bft) 100,00 %
01.03.2018 04:52 -7,9 C -7,8 C -8,9 C 69 % 0 lf 1010,4 hPa 0,0 l/m 0 min 0 min 0 W/m 15,8 km/h (3 Bft) 97,14 %
01.03.2018 04:54 -7,9 C -7,8 C -8,9 C 69 % 0 lf 1010,4 hPa 0,0 l/m 0 min 0 min 0 W/m 24,8 km/h (4 Bft) 97,87 %
01.03.2018 04:56 -7,9 C -7,8 C -8,9 C 69 % 0 lf 1010,4 hPa 0,0 l/m 0 min 0 min 0 W/m 24,8 km/h (4 Bft) 100,00 %
01.03.2018 04:58 -7,9 C -7,8 C -8,9 C 69 % 0 lf 1010,3 hPa 0,0 l/m 0 min 0 min 0 W/m 22,5 km/h (4 Bft) 100,00 %
01.03.2018 05:00 -7,8 C -7,8 C -8,9 C 69 % 0 lf 1010,2 hPa 0,0 l/m 0 min 0 min 0 W/m 18,0 km/h (3 Bft) 100,00 %
01.03.2018 05:02 -7,8 C -7,8 C -8,9 C 69 % 0 lf 1010,1 hPa 0,0 l/m 0 min 0 min 0 W/m 22,5 km/h (4 Bft) 95,74 %
01.03.2018 05:04 -7,8 C -7,8 C -8,9 C 69 % 0 lf 1010,2 hPa 0,0 l/m 0 min 0 min 0 W/m 27,0 km/h (4 Bft) 100,00 %
01.03.2018 05:06 -7,8 C -7,8 C -8,3 C 69 % 0 lf 1010,2 hPa 0,0 l/m 0 min 0 min 0 W/m 24,8 km/h (4 Bft) 97,87 %
01.03.2018 05:08 -7,7 C -7,2 C -8,3 C 68 % 0 lf 1010,1 hPa 0,0 l/m 0 min 0 min 0 W/m 38,3 km/h (5 Bft) 97,83 %
01.03.2018 05:10 -7,7 C -7,2 C -8,3 C 68 % 0 lf 1010,1 hPa 0,0 l/m 0 min 0 min 0 W/m 31,5 km/h (5 Bft) 100,00 %
01.03.2018 05:12 -7,7 C -7,2 C -8,3 C 68 % 0 lf 1010,1 hPa 0,0 l/m 0 min 0 min 0 W/m 22,5 km/h (4 Bft) 100,00 %
01.03.2018 05:14 -7,7 C -7,2 C -8,3 C 68 % 0 lf 1010,1 hPa 0,0 l/m 0 min 0 min 0 W/m 24,8 km/h (4 Bft) 100,00 %
01.03.2018 05:16 -7,6 C -7,2 C -8,3 C 67 % 0 lf 1010,1 hPa 0,0 l/m 0 min 0 min 0 W/m 38,3 km/h (5 Bft) 100,00 %
01.03.2018 05:18 -7,5 C -7,2 C -8,3 C 67 % 0 lf 1010,1 hPa 0,0 l/m 0 min 0 min 0 W/m 33,8 km/h (5 Bft) 95,65 %
01.03.2018 05:20 -7,5 C -7,2 C -8,3 C 67 % 0 lf 1010,1 hPa 0,0 l/m 0 min 0 min 0 W/m 45,1 km/h (6 Bft) 96,61 %
01.03.2018 05:22 -7,4 C -7,2 C -7,8 C 67 % 0 lf 1010,1 hPa 0,0 l/m 0 min 0 min 0 W/m 31,5 km/h (5 Bft) 100,00 %
01.03.2018 05:24 -7,4 C -7,2 C -7,8 C 66 % 0 lf 1010,1 hPa 0,0 l/m 0 min 0 min 0 W/m 36,0 km/h (5 Bft) 100,00 %
01.03.2018 05:26 -7,3 C -7,2 C -7,8 C 66 % 0 lf 1010,1 hPa 0,0 l/m 0 min 0 min 0 W/m 45,1 km/h (6 Bft) 97,87 %
01.03.2018 05:28 -7,3 C -7,2 C -7,8 C 66 % 0 lf 1010,2 hPa 0,0 l/m 0 min 0 min 0 W/m 33,8 km/h (5 Bft) 100,00 %
01.03.2018 05:30 -7,2 C -7,2 C -7,8 C 66 % 0 lf 1010,2 hPa 0,0 l/m 0 min 0 min 0 W/m 33,8 km/h (5 Bft) 100,00 %
01.03.2018 05:32 -7,2 C -7,2 C -7,8 C 66 % 0 lf 1010,2 hPa 0,0 l/m 0 min 0 min 0 W/m 33,8 km/h (5 Bft) 100,00 %
01.03.2018 05:34 -7,2 C -7,2 C -7,8 C 65 % 0 lf 1010,2 hPa 0,0 l/m 0 min 0 min 0 W/m 29,3 km/h (5 Bft) 97,87 %
01.03.2018 05:35 -7,2 C -7,2 C -7,8 C 65 % 0 lf 1010,2 hPa 0,0 l/m 0 min 0 min 0 W/m 33,8 km/h (5 Bft) 100,00 %
01.03.2018 05:38 -7,1 C -7,2 C -7,8 C 65 % 0 lf 1010,1 hPa 0,0 l/m 0 min 0 min 0 W/m 24,8 km/h (4 Bft) 97,19 %
01.03.2018 05:40 -7,1 C -7,2 C -7,8 C 65 % 0 lf 1009,9 hPa 0,0 l/m 0 min 0 min 0 W/m 38,3 km/h (5 Bft) 100,00 %
01.03.2018 05:42 -7,1 C -6,7 C -7,8 C 65 % 0 lf 1009,9 hPa 0,0 l/m 0 min 0 min 0 W/m 38,3 km/h (5 Bft) 95,65 %
01.03.2018 05:44 -7,0 C -6,7 C -7,8 C 65 % 0 lf 1009,9 hPa 0,0 l/m 0 min 0 min 0 W/m 31,5 km/h (5 Bft) 100,00 %
01.03.2018 05:46 -7,0 C -6,7 C -7,8 C 65 % 0 lf 1009,8 hPa 0,0 l/m 0 min 0 min 0 W/m 33,8 km/h (5 Bft) 97,87 %
01.03.2018 05:48 -7,0 C -6,7 C -7,8 C 65 % 0 lf 1009,8 hPa 0,0 l/m 0 min 0 min 0 W/m 38,3 km/h (5 Bft) 97,87 %
01.03.2018 05:50 -6,9 C -6,7 C -7,8 C 65 % 0 lf 1009,6 hPa 0,0 l/m 0 min 0 min 0 W/m 45,1 km/h (6 Bft) 95,74 %
01.03.2018 05:52 -6,9 C -6,7 C -7,8 C 64 % 0 lf 1009,6 hPa 0,0 l/m 0 min 0 min 0 W/m 47,3 km/h (6 Bft) 97,87 %
01.03.2018 05:54 -6,9 C -6,7 C -7,8 C 64 % 0 lf 1009,6 hPa 0,0 l/m 0 min 0 min 0 W/m 24,8 km/h (4 Bft) 95,65 %
01.03.2018 05:56 -6,9 C -6,7 C -7,8 C 64 % 0 lf 1009,8 hPa 0,0 l/m 0 min 0 min 0 W/m 40,6 km/h (6 Bft) 97,87 %
01.03.2018 05:58 -6,9 C -6,7 C -7,8 C 64 % 0 lf 1009,9 hPa 0,0 l/m 0 min 0 min 0 W/m 29,3 km/h (5 Bft) 93,62 %
01.03.2018 06:00 -6,9 C -6,7 C -7,8 C 64 % 0 lf 1009,9 hPa 0,0 l/m 0 min 0 min 0 W/m 27,0 km/h (4 Bft) 95,74 %
01.03.2018 06:02 -6,9 C -6,7 C -7,8 C 64 % 0 lf 1009,9 hPa 0,0 l/m 0 min 0 min 0 W/m 36,0 km/h (5 Bft) 95,74 %
01.03.2018 06:04 -6,8 C -6,7 C -7,8 C 64 % 0 lf 1009,9 hPa 0,0 l/m 0 min 0 min 0 W/m 27,0 km/h (4 Bft) 91,49 %
01.03.2018 06:06 -6,8 C -6,7 C -7,8 C 64 % 0 lf 1009,8 hPa 0,0 l/m 0 min 0 min 0 W/m 36,0 km/h (5 Bft) 92,86 %
01.03.2018 06:08 -6,8 C -6,7 C -7,8 C 64 % 0 lf 1009,7 hPa 0,0 l/m 0 min 0 min 0 W/m 38,3 km/h (5 Bft) 95,74 %
01.03.2018 06:10 -6,8 C -6,7 C -7,8 C 64 % 0 lf 1009,6 hPa 0,0 l/m 0 min 0 min 0 W/m 31,5 km/h (5 Bft) 95,74 %
01.03.2018 06:12 -6,8 C -6,7 C -7,8 C 64 % 0 lf 1009,7 hPa 0,0 l/m 0 min 0 min 0 W/m 33,8 km/h (5 Bft) 95,65 %
01.03.2018 06:14 -6,8 C -6,7 C -7,8 C 64 % 0 lf 1009,7 hPa 0,0 l/m 0 min 0 min 0 W/m 36,0 km/h (5 Bft) 93,62 %
01.03.2018 06:16 -6,8 C -6,7 C -7,8 C 64 % 0 lf 1009,9 hPa 0,0 l/m 0 min 0 min 0 W/m 29,3 km/h (5 Bft) 93,62 %
01.03.2018 06:18 -6,8 C -6,7 C -7,8 C 64 % 0 lf 1009,8 hPa 0,0 l/m 0 min 0 min 0 W/m 36,0 km/h (5 Bft) 93,62 %
01.03.2018 06:20 -6,8 C -6,7 C -7,8 C 64 % 0 lf 1009,9 hPa 0,0 l/m 0 min 0 min 0 W/m 31,5 km/h (5 Bft) 94,12 %
01.03.2018 06:22 -6,8 C -6,7 C -7,8 C 64 % 0 lf 1009,8 hPa 0,0 l/m 0 min 0 min 0 W/m 33,8 km/h (5 Bft) 88,89 %
01.03.2018 06:24 -6,8 C -6,7 C -7,2 C 64 % 0 lf 1009,8 hPa 0,0 l/m 0 min 0 min 0 W/m 24,8 km/h (4 Bft) 91,84 %
01.03.2018 06:26 -6,7 C -6,7 C -7,8 C 64 % 0 lf 1009,8 hPa 0,0 l/m 0 min 0 min 0 W/m 31,5 km/h (5 Bft) 87,23 %
01.03.2018 06:28 -6,7 C -6,7 C -7,8 C 64 % 0 lf 1009,7 hPa 0,0 l/m 0 min 0 min 0 W/m 31,5 km/h (5 Bft) 91,30 %
01.03.2018 06:30 -6,7 C -6,7 C -7,8 C 64 % 0 lf 1009,8 hPa 0,0 l/m 0 min 0 min 0 W/m 31,5 km/h (5 Bft) 91,49 %
01.03.2018 06:32 -6,7 C -6,7 C -7,2 C 64 % 0 lf 1009,7 hPa 0,0 l/m 0 min 0 min 0 W/m 31,5 km/h (5 Bft) 89,36 %
01.03.2018 06:34 -6,7 C -6,7 C -7,2 C 64 % 0 lf 1009,7 hPa 0,0 l/m 0 min 0 min 0 W/m 24,8 km/h (4 Bft) 87,23 %
01.03.2018 06:36 -6,7 C -6,7 C -7,8 C 64 % 0 lf 1009,7 hPa 0,0 l/m 0 min 0 min 0 W/m 33,8 km/h (5 Bft) 91,49 %
01.03.2018 06:38 -6,7 C -6,7 C -7,8 C 64 % 0 lf 1009,6 hPa 0,0 l/m 0 min 0 min 0 W/m 38,3 km/h (5 Bft) 91,49 %
01.03.2018 06:40 -6,7 C -6,7 C -7,8 C 64 % 0 lf 1009,6 hPa 0,0 l/m 0 min 0 min 0 W/m 29,3 km/h (5 Bft) 93,48 %
01.03.2018 06:42 -6,7 C -6,7 C -7,8 C 64 % 0 lf 1009,6 hPa 0,0 l/m 0 min 0 min 0 W/m 31,5 km/h (5 Bft) 93,62 %
01.03.2018 06:44 -6,7 C -6,7 C -7,8 C 64 % 0 lf 1009,6 hPa 0,0 l/m 0 min 0 min 0 W/m 27,0 km/h (4 Bft) 95,74 %
01.03.2018 06:46 -6,7 C -6,7 C -7,8 C 64 % 0 lf 1009,6 hPa 0,0 l/m 0 min 0 min 0 W/m 24,8 km/h (4 Bft) 91,49 %
01.03.2018 06:48 -6,7 C -6,7 C -7,8 C 64 % 0 lf 1009,6 hPa 0,0 l/m 0 min 0 min 0 W/m 24,8 km/h (4 Bft) 93,62 %
01.03.2018 06:50 -6,7 C -6,7 C -7,8 C 64 % 0 lf 1009,5 hPa 0,0 l/m 0 min 0 min 0 W/m 29,3 km/h (5 Bft) 93,48 %
01.03.2018 06:52 -6,7 C -6,7 C -7,8 C 64 % 0 lf 1009,5 hPa 0,0 l/m 0 min 0 min 0 W/m 49,6 km/h (6 Bft) 91,49 %
01.03.2018 06:54 -6,8 C -6,7 C -7,8 C 64 % 0 lf 1009,5 hPa 0,0 l/m 0 min 0 min 0 W/m 42,8 km/h (6 Bft) 93,02 %
01.03.2018 06:56 -6,8 C -6,7 C -7,8 C 64 % 0 lf 1009,4 hPa 0,0 l/m 0 min 0 min 0 W/m 38,3 km/h (5 Bft) 91,49 %
01.03.2018 06:58 -6,8 C -6,7 C -7,8 C 64 % 0 lf 1009,5 hPa 0,0 l/m 0 min 0 min 0 W/m 31,5 km/h (5 Bft) 95,65 %
01.03.2018 07:00 -6,8 C -6,7 C -7,8 C 64 % 0 lf 1009,5 hPa 0,0 l/m 0 min 0 min 0 W/m 24,8 km/h (4 Bft) 93,62 %
01.03.2018 07:02 -6,8 C -6,7 C -7,8 C 64 % 0 lf 1009,5 hPa 0,0 l/m 0 min 0 min 0 W/m 22,5 km/h (4 Bft) 95,74 %
01.03.2018 07:04 -6,8 C -6,7 C -7,8 C 64 % 0 lf 1009,6 hPa 0,0 l/m 0 min 0 min 0 W/m 22,5 km/h (4 Bft) 97,87 %
01.03.2018 07:06 -6,8 C -6,7 C -7,8 C 64 % 0 lf 1009,5 hPa 0,0 l/m 0 min 0 min 0 W/m 33,8 km/h (5 Bft) 96,08 %
01.03.2018 07:08 -6,8 C -6,7 C -7,8 C 64 % 0 lf 1009,4 hPa 0,0 l/m 0 min 0 min 0 W/m 24,8 km/h (4 Bft) 95,74 %
01.03.2018 07:10 -6,8 C -6,7 C -7,8 C 64 % 0 lf 1009,4 hPa 0,0 l/m 0 min 0 min 0 W/m 36,0 km/h (5 Bft) 100,00 %
01.03.2018 07:12 -6,8 C -6,7 C -7,8 C 64 % 0 lf 1009,3 hPa 0,0 l/m 0 min 0 min 0 W/m 36,0 km/h (5 Bft) 95,74 %
01.03.2018 07:14 -6,8 C -6,7 C -7,8 C 64 % 0 lf 1009,4 hPa 0,0 l/m 0 min 0 min 3 W/m 40,6 km/h (6 Bft) 97,87 %
01.03.2018 07:16 -6,8 C -6,7 C -7,8 C 64 % 0 lf 1009,4 hPa 0,0 l/m 0 min 0 min 5 W/m 40,6 km/h (6 Bft) 100,00 %
01.03.2018 07:18 -6,8 C -6,7 C -7,8 C 64 % 0 lf 1009,3 hPa 0,0 l/m 0 min 0 min 5 W/m 40,6 km/h (6 Bft) 100,00 %
01.03.2018 07:20 -6,8 C -6,7 C -7,8 C 64 % 0 lf 1009,3 hPa 0,0 l/m 0 min 0 min 5 W/m 33,8 km/h (5 Bft) 100,00 %
01.03.2018 07:22 -6,8 C -6,7 C -7,8 C 64 % 0 lf 1009,4 hPa 0,0 l/m 0 min 0 min 5 W/m 36,0 km/h (5 Bft) 100,00 %
01.03.2018 07:24 -6,8 C -6,7 C -7,8 C 64 % 0 lf 1009,4 hPa 0,0 l/m 0 min 0 min 5 W/m 38,3 km/h (5 Bft) 97,87 %
01.03.2018 07:26 -6,8 C -6,7 C -7,8 C 64 % 0 lf 1009,4 hPa 0,0 l/m 0 min 0 min 5 W/m 36,0 km/h (5 Bft) 100,00 %
01.03.2018 07:28 -6,8 C -6,7 C -7,8 C 64 % 0 lf 1009,3 hPa 0,0 l/m 0 min 0 min 6 W/m 36,0 km/h (5 Bft) 97,87 %
01.03.2018 07:30 -6,8 C -6,7 C -7,8 C 64 % 0 lf 1009,3 hPa 0,0 l/m 0 min 0 min 7 W/m 38,3 km/h (5 Bft) 93,62 %
01.03.2018 07:32 -6,8 C -6,7 C -7,8 C 64 % 0 lf 1009,5 hPa 0,0 l/m 0 min 0 min 8 W/m 38,3 km/h (5 Bft) 100,00 %
01.03.2018 07:34 -6,8 C -6,7 C -7,8 C 64 % 0 lf 1009,5 hPa 0,0 l/m 0 min 0 min 10 W/m 31,5 km/h (5 Bft) 97,83 %
01.03.2018 07:38 -6,7 C -6,7 C -7,8 C 64 % 0 lf 1009,4 hPa 0,0 l/m 0 min 0 min 12 W/m 42,8 km/h (6 Bft) 97,98 %
01.03.2018 07:40 -6,7 C -6,7 C -7,8 C 64 % 0 lf 1009,4 hPa 0,0 l/m 0 min 0 min 14 W/m 36,0 km/h (5 Bft) 100,00 %
01.03.2018 07:42 -6,7 C -6,7 C -7,8 C 64 % 0 lf 1009,3 hPa 0,0 l/m 0 min 0 min 14 W/m 36,0 km/h (5 Bft) 100,00 %
01.03.2018 07:44 -6,7 C -6,7 C -7,8 C 64 % 0 lf 1009,3 hPa 0,0 l/m 0 min 0 min 16 W/m 36,0 km/h (5 Bft) 100,00 %
01.03.2018 07:46 -6,7 C -6,7 C -7,8 C 64 % 0 lf 1009,4 hPa 0,0 l/m 0 min 0 min 17 W/m 38,3 km/h (5 Bft) 95,65 %
01.03.2018 07:48 -6,7 C -6,7 C -7,8 C 64 % 0 lf 1009,4 hPa 0,0 l/m 0 min 0 min 19 W/m 24,8 km/h (4 Bft) 95,74 %
01.03.2018 07:50 -6,7 C -6,7 C -7,8 C 64 % 0 lf 1009,4 hPa 0,0 l/m 0 min 0 min 22 W/m 29,3 km/h (5 Bft) 97,87 %
01.03.2018 07:52 -6,7 C -6,7 C -7,8 C 64 % 0 lf 1009,3 hPa 0,0 l/m 0 min 0 min 26 W/m 40,6 km/h (6 Bft) 97,87 %
01.03.2018 07:54 -6,7 C -6,7 C -7,8 C 64 % 0 lf 1009,3 hPa 0,0 l/m 0 min 0 min 30 W/m 29,3 km/h (5 Bft) 100,00 %
01.03.2018 07:56 -6,8 C -6,7 C -7,8 C 64 % 0 lf 1009,3 hPa 0,0 l/m 0 min 0 min 33 W/m 33,8 km/h (5 Bft) 97,87 %
01.03.2018 07:58 -6,8 C -6,7 C -7,8 C 64 % 0 lf 1009,3 hPa 0,0 l/m 0 min 0 min 39 W/m 29,3 km/h (5 Bft) 97,87 %
01.03.2018 08:00 -6,8 C -6,7 C -7,2 C 64 % 0 lf 1009,3 hPa 0,0 l/m 0 min 0 min 44 W/m 22,5 km/h (4 Bft) 97,83 %
01.03.2018 08:02 -6,8 C -6,7 C -7,2 C 64 % 0 lf 1009,3 hPa 0,0 l/m 2 min 0 min 50 W/m 22,5 km/h (4 Bft) 91,49 %
01.03.2018 08:04 -6,8 C -6,7 C -7,2 C 64 % 0 lf 1009,3 hPa 0,0 l/m 2 min 0 min 55 W/m 31,5 km/h (5 Bft) 97,87 %
01.03.2018 08:06 -6,7 C -6,1 C -7,2 C 64 % 0 lf 1009,1 hPa 0,0 l/m 2 min 0 min 60 W/m 24,8 km/h (4 Bft) 97,87 %
01.03.2018 08:08 -6,7 C -6,1 C -7,2 C 64 % 0 lf 1009,2 hPa 0,0 l/m 2 min 0 min 64 W/m 20,3 km/h (4 Bft) 95,74 %
01.03.2018 08:10 -6,7 C -6,1 C -7,2 C 65 % 0 lf 1009,1 hPa 0,0 l/m 2 min 0 min 70 W/m 29,3 km/h (5 Bft) 97,87 %
01.03.2018 08:12 -6,7 C -6,1 C -7,2 C 64 % 0 lf 1009,1 hPa 0,0 l/m 2 min 0 min 74 W/m 51,8 km/h (7 Bft) 97,83 %
01.03.2018 08:14 -6,7 C -6,1 C -7,2 C 64 % 0 lf 1009,2 hPa 0,0 l/m 2 min 0 min 86 W/m 38,3 km/h (5 Bft) 93,62 %
01.03.2018 08:16 -6,7 C -6,1 C -7,2 C 64 % 0 lf 1009,1 hPa 0,0 l/m 2 min 0 min 98 W/m 36,0 km/h (5 Bft) 97,87 %
01.03.2018 08:18 -6,6 C -6,1 C -7,2 C 64 % 0 lf 1009,2 hPa 0,0 l/m 2 min 0 min 91 W/m 29,3 km/h (5 Bft) 97,87 %
01.03.2018 08:20 -6,6 C -6,1 C -7,2 C 64 % 0 lf 1009,1 hPa 0,0 l/m 2 min 0 min 82 W/m 36,0 km/h (5 Bft) 95,74 %
01.03.2018 08:22 -6,6 C -6,1 C -7,2 C 64 % 0 lf 1009,0 hPa 0,0 l/m 2 min 0 min 76 W/m 33,8 km/h (5 Bft) 97,87 %
01.03.2018 08:24 -6,6 C -6,1 C -7,2 C 64 % 0 lf 1009,0 hPa 0,0 l/m 2 min 0 min 80 W/m 31,5 km/h (5 Bft) 93,48 %
01.03.2018 08:26 -6,6 C -6,1 C -6,7 C 64 % 0 lf 1009,0 hPa 0,0 l/m 2 min 0 min 95 W/m 31,5 km/h (5 Bft) 95,74 %
01.03.2018 08:28 -6,5 C -6,1 C -6,7 C 64 % 0 lf 1009,0 hPa 0,0 l/m 0 min 0 min 74 W/m 36,0 km/h (5 Bft) 100,00 %
01.03.2018 08:30 -6,5 C -6,1 C -6,7 C 64 % 0 lf 1008,9 hPa 0,0 l/m 0 min 0 min 82 W/m 40,6 km/h (6 Bft) 100,00 %
01.03.2018 08:32 -6,4 C -6,1 C -6,7 C 64 % 0 lf 1008,9 hPa 0,0 l/m 2 min 0 min 91 W/m 49,6 km/h (6 Bft) 100,00 %
01.03.2018 08:34 -6,4 C -6,1 C -6,7 C 63 % 0 lf 1008,9 hPa 0,0 l/m 0 min 0 min 87 W/m 33,8 km/h (5 Bft) 97,87 %
01.03.2018 08:36 -6,4 C -6,1 C -6,7 C 63 % 0 lf 1009,0 hPa 0,0 l/m 0 min 0 min 89 W/m 42,8 km/h (6 Bft) 100,00 %
01.03.2018 08:38 -6,4 C -6,1 C -6,7 C 63 % 0 lf 1009,0 hPa 0,0 l/m 0 min 0 min 90 W/m 40,6 km/h (6 Bft) 95,74 %
01.03.2018 08:40 -6,3 C -6,1 C -6,7 C 63 % 0 lf 1008,9 hPa 0,0 l/m 0 min 0 min 92 W/m 40,6 km/h (6 Bft) 95,74 %
01.03.2018 08:42 -6,3 C -5,6 C -6,7 C 63 % 0 lf 1008,8 hPa 0,0 l/m 0 min 0 min 93 W/m 29,3 km/h (5 Bft) 93,62 %
01.03.2018 08:44 -6,3 C -5,6 C -6,1 C 63 % 0 lf 1008,9 hPa 0,0 l/m 0 min 0 min 100 W/m 36,0 km/h (5 Bft) 97,87 %
01.03.2018 08:46 -6,3 C -5,6 C -6,1 C 63 % 0 lf 1008,9 hPa 0,0 l/m 2 min 0 min 105 W/m 31,5 km/h (5 Bft) 97,87 %
01.03.2018 08:48 -6,3 C -5,6 C -6,1 C 63 % 0 lf 1008,9 hPa 0,0 l/m 2 min 0 min 109 W/m 36,0 km/h (5 Bft) 97,83 %
01.03.2018 08:50 -6,2 C -5,6 C -6,1 C 63 % 0 lf 1008,9 hPa 0,0 l/m 2 min 0 min 115 W/m 38,3 km/h (5 Bft) 97,87 %
01.03.2018 08:52 -6,2 C -5,6 C -6,1 C 63 % 0 lf 1008,8 hPa 0,0 l/m 2 min 0 min 122 W/m 51,8 km/h (7 Bft) 95,74 %
01.03.2018 08:54 -6,2 C -5,6 C -6,1 C 62 % 0 lf 1008,7 hPa 0,0 l/m 2 min 0 min 126 W/m 42,8 km/h (6 Bft) 93,62 %
01.03.2018 08:56 -6,1 C -5,6 C -6,1 C 62 % 0 lf 1008,6 hPa 0,0 l/m 2 min 0 min 140 W/m 47,3 km/h (6 Bft) 97,87 %
01.03.2018 08:58 -6,1 C -5,0 C -6,1 C 62 % 0 lf 1008,7 hPa 0,0 l/m 2 min 0 min 136 W/m 38,3 km/h (5 Bft) 97,87 %
01.03.2018 09:00 -6,1 C -5,0 C -5,6 C 62 % 0 lf 1008,7 hPa 0,0 l/m 2 min 0 min 140 W/m 33,8 km/h (5 Bft) 97,83 %
01.03.2018 09:02 -6,0 C -5,0 C -5,6 C 62 % 0 lf 1008,7 hPa 0,0 l/m 2 min 0 min 151 W/m 42,8 km/h (6 Bft) 97,87 %
01.03.2018 09:04 -5,9 C -3,3 C -5,6 C 62 % 0 lf 1008,7 hPa 0,0 l/m 2 min 0 min 231 W/m 33,8 km/h (5 Bft) 97,37 %
01.03.2018 09:08 -5,8 C -2,8 C -5,0 C 62 % 0 lf 1008,6 hPa 0,0 l/m 4 min 0 min 253 W/m 33,8 km/h (5 Bft) 98,94 %
01.03.2018 09:10 -5,7 C -3,3 C -5,0 C 62 % 0 lf 1008,5 hPa 0,0 l/m 2 min 0 min 221 W/m 49,6 km/h (6 Bft) 100,00 %
01.03.2018 09:12 -5,6 C -3,3 C -5,0 C 61 % 0 lf 1008,5 hPa 0,0 l/m 2 min 0 min 214 W/m 36,0 km/h (5 Bft) 93,62 %
01.03.2018 09:14 -5,5 C -3,9 C -5,0 C 61 % 0 lf 1008,5 hPa 0,0 l/m 2 min 0 min 220 W/m 42,8 km/h (6 Bft) 97,83 %
01.03.2018 09:16 -5,4 C -3,9 C -5,0 C 61 % 0 lf 1008,5 hPa 0,0 l/m 2 min 0 min 190 W/m 56,3 km/h (7 Bft) 95,74 %
01.03.2018 09:18 -5,4 C -3,9 C -5,0 C 60 % 0 lf 1008,5 hPa 0,0 l/m 2 min 0 min 180 W/m 36,0 km/h (5 Bft) 91,49 %
01.03.2018 09:20 -5,3 C -3,3 C -5,0 C 60 % 0 lf 1008,6 hPa 0,0 l/m 2 min 0 min 183 W/m 47,3 km/h (6 Bft) 96,61 %
01.03.2018 09:22 -5,3 C -3,3 C -4,4 C 60 % 0 lf 1008,5 hPa 0,0 l/m 2 min 0 min 172 W/m 36,0 km/h (5 Bft) 94,29 %
01.03.2018 09:24 -5,3 C -3,9 C -5,0 C 60 % 0 lf 1008,5 hPa 0,0 l/m 2 min 0 min 170 W/m 51,8 km/h (7 Bft) 93,62 %
01.03.2018 09:26 -5,2 C -3,9 C -5,0 C 59 % 0 lf 1008,4 hPa 0,0 l/m 2 min 0 min 164 W/m 36,0 km/h (5 Bft) 97,83 %
01.03.2018 09:28 -5,2 C -3,9 C -5,0 C 59 % 0 lf 1008,3 hPa 0,0 l/m 2 min 0 min 162 W/m 33,8 km/h (5 Bft) 95,74 %
01.03.2018 09:30 -5,2 C -3,9 C -5,0 C 60 % 0 lf 1008,3 hPa 0,0 l/m 0 min 0 min 144 W/m 47,3 km/h (6 Bft) 97,87 %
01.03.2018 09:32 -5,1 C -4,4 C -5,0 C 59 % 0 lf 1008,2 hPa 0,0 l/m 0 min 0 min 135 W/m 42,8 km/h (6 Bft) 95,74 %
01.03.2018 09:34 -5,1 C -4,4 C -5,0 C 59 % 0 lf 1008,3 hPa 0,0 l/m 0 min 0 min 132 W/m 47,3 km/h (6 Bft) 97,87 %
01.03.2018 09:36 -5,1 C -4,4 C -5,0 C 59 % 0 lf 1008,1 hPa 0,0 l/m 0 min 0 min 141 W/m 42,8 km/h (6 Bft) 97,83 %
01.03.2018 09:38 -5,1 C -4,4 C -5,0 C 59 % 0 lf 1008,1 hPa 0,0 l/m 0 min 0 min 143 W/m 38,3 km/h (5 Bft) 97,87 %
01.03.2018 09:40 -5,1 C -2,8 C -5,0 C 59 % 0 lf 1008,2 hPa 0,0 l/m 0 min 0 min 156 W/m 49,6 km/h (6 Bft) 97,87 %
01.03.2018 09:42 -5,1 C -2,8 C -4,4 C 59 % 0 lf 1008,1 hPa 0,0 l/m 2 min 0 min 176 W/m 54,1 km/h (7 Bft) 95,74 %
01.03.2018 09:44 -5,1 C -3,9 C -5,0 C 59 % 0 lf 1008,2 hPa 0,0 l/m 2 min 0 min 187 W/m 56,3 km/h (7 Bft) 91,49 %
01.03.2018 09:46 -5,0 C -3,3 C -5,0 C 59 % 0 lf 1008,1 hPa 0,0 l/m 0 min 0 min 158 W/m 42,8 km/h (6 Bft) 97,92 %
01.03.2018 09:48 -5,0 C -3,9 C -5,0 C 59 % 0 lf 1008,1 hPa 0,0 l/m 0 min 0 min 157 W/m 42,8 km/h (6 Bft) 95,65 %
01.03.2018 09:50 -5,0 C -3,9 C -5,0 C 59 % 0 lf 1007,9 hPa 0,0 l/m 0 min 0 min 135 W/m 49,6 km/h (6 Bft) 98,31 %
01.03.2018 09:52 -5,0 C -3,3 C -4,4 C 59 % 0 lf 1007,8 hPa 0,0 l/m 2 min 0 min 201 W/m 38,3 km/h (5 Bft) 94,29 %
01.03.2018 09:54 -5,0 C -3,9 C -5,0 C 58 % 0 lf 1007,7 hPa 0,0 l/m 0 min 0 min 161 W/m 47,3 km/h (6 Bft) 89,36 %
01.03.2018 09:56 -5,0 C -3,3 C -4,4 C 59 % 0 lf 1007,7 hPa 0,0 l/m 2 min 0 min 210 W/m 42,8 km/h (6 Bft) 93,62 %
01.03.2018 09:58 -4,9 C -2,2 C -3,9 C 58 % 0 lf 1007,7 hPa 0,0 l/m 2 min 0 min 201 W/m 40,6 km/h (6 Bft) 91,49 %
01.03.2018 10:00 -4,9 C -1,7 C -3,3 C 59 % 0 lf 1007,7 hPa 0,0 l/m 2 min 0 min 214 W/m 33,8 km/h (5 Bft) 95,65 %
01.03.2018 10:02 -4,8 C -1,1 C -2,8 C 58 % 0 lf 1007,7 hPa 0,0 l/m 2 min 0 min 214 W/m 40,6 km/h (6 Bft) 91,49 %
01.03.2018 10:04 -4,7 C -1,7 C -2,8 C 58 % 0 lf 1007,6 hPa 0,0 l/m 2 min 0 min 239 W/m 49,6 km/h (6 Bft) 95,74 %
01.03.2018 10:06 -4,6 C -1,7 C -2,8 C 57 % 0 lf 1007,6 hPa 0,0 l/m 2 min 0 min 381 W/m 42,8 km/h (6 Bft) 93,62 %
01.03.2018 10:08 -4,5 C -1,7 C -2,8 C 57 % 0 lf 1007,5 hPa 0,0 l/m 2 min 0 min 364 W/m 49,6 km/h (6 Bft) 95,74 %
01.03.2018 10:10 -4,4 C -1,7 C -2,8 C 57 % 0 lf 1007,6 hPa 0,0 l/m 2 min 0 min 299 W/m 49,6 km/h (6 Bft) 93,62 %
01.03.2018 10:12 -4,3 C -1,7 C -2,8 C 57 % 0 lf 1007,6 hPa 0,0 l/m 2 min 0 min 374 W/m 49,6 km/h (6 Bft) 93,48 %
01.03.2018 10:14 -4,2 C -1,7 C -2,8 C 57 % 0 lf 1007,6 hPa 0,0 l/m 2 min 0 min 262 W/m 38,3 km/h (5 Bft) 93,62 %
01.03.2018 10:16 -4,2 C -1,7 C -2,8 C 57 % 0 lf 1007,6 hPa 0,0 l/m 2 min 0 min 258 W/m 31,5 km/h (5 Bft) 95,74 %
01.03.2018 10:18 -4,1 C -1,7 C -2,8 C 57 % 0 lf 1007,5 hPa 0,0 l/m 2 min 0 min 248 W/m 40,6 km/h (6 Bft) 95,74 %
01.03.2018 10:20 -4,1 C -2,8 C -3,3 C 56 % 0 lf 1007,5 hPa 0,0 l/m 2 min 0 min 225 W/m 51,8 km/h (7 Bft) 94,83 %
01.03.2018 10:22 -4,1 C -2,8 C -3,3 C 56 % 0 lf 1007,4 hPa 0,0 l/m 2 min 0 min 217 W/m 47,3 km/h (6 Bft) 94,44 %
01.03.2018 10:24 -4,0 C -2,2 C -3,3 C 56 % 0 lf 1007,5 hPa 0,0 l/m 2 min 0 min 227 W/m 29,3 km/h (5 Bft) 95,65 %
01.03.2018 10:26 -4,0 C -1,7 C -3,3 C 56 % 0 lf 1007,6 hPa 0,0 l/m 2 min 0 min 238 W/m 31,5 km/h (5 Bft) 93,62 %
01.03.2018 10:28 -3,9 C -1,7 C -3,3 C 56 % 0 lf 1007,5 hPa 0,0 l/m 2 min 0 min 226 W/m 31,5 km/h (5 Bft) 95,74 %
01.03.2018 10:30 -3,8 C -1,7 C -2,8 C 55 % 0 lf 1007,5 hPa 0,0 l/m 2 min 0 min 240 W/m 33,8 km/h (5 Bft) 95,74 %
01.03.2018 10:32 -3,8 C -1,7 C -2,8 C 55 % 0 lf 1007,3 hPa 0,0 l/m 2 min 0 min 242 W/m 29,3 km/h (5 Bft) 93,62 %
01.03.2018 10:34 -3,7 C -1,7 C -2,8 C 55 % 0 lf 1007,3 hPa 0,0 l/m 2 min 0 min 244 W/m 36,0 km/h (5 Bft) 95,65 %
01.03.2018 10:36 -3,7 C -1,7 C -2,8 C 55 % 0 lf 1007,2 hPa 0,0 l/m 2 min 0 min 241 W/m 31,5 km/h (5 Bft) 95,74 %
01.03.2018 10:38 -3,6 C -1,7 C -2,8 C 55 % 0 lf 1007,1 hPa 0,0 l/m 2 min 0 min 230 W/m 31,5 km/h (5 Bft) 91,49 %
01.03.2018 10:40 -3,6 C -1,7 C -2,8 C 54 % 0 lf 1007,2 hPa 0,0 l/m 2 min 0 min 233 W/m 49,6 km/h (6 Bft) 93,62 %
01.03.2018 10:42 -3,5 C -1,7 C -2,8 C 54 % 0 lf 1007,2 hPa 0,0 l/m 2 min 0 min 238 W/m 38,3 km/h (5 Bft) 97,87 %
01.03.2018 10:44 -3,4 C -1,1 C -2,8 C 53 % 0 lf 1007,2 hPa 0,0 l/m 2 min 0 min 248 W/m 31,5 km/h (5 Bft) 97,87 %
01.03.2018 10:46 -3,4 C -1,7 C -2,8 C 53 % 0 lf 1007,2 hPa 0,0 l/m 2 min 0 min 241 W/m 45,1 km/h (6 Bft) 97,83 %
01.03.2018 10:48 -3,3 C -1,1 C -2,8 C 52 % 0 lf 1007,2 hPa 0,0 l/m 2 min 0 min 274 W/m 47,3 km/h (6 Bft) 93,62 %
01.03.2018 10:50 -3,3 C -1,1 C -2,8 C 52 % 0 lf 1007,1 hPa 0,0 l/m 2 min 0 min 243 W/m 33,8 km/h (5 Bft) 98,31 %
01.03.2018 10:52 -3,2 C -0,6 C -2,8 C 52 % 0 lf 1007,0 hPa 0,0 l/m 2 min 0 min 259 W/m 36,0 km/h (5 Bft) 100,00 %
01.03.2018 10:54 -3,1 C -0,6 C -2,8 C 52 % 0 lf 1007,1 hPa 0,0 l/m 2 min 0 min 254 W/m 47,3 km/h (6 Bft) 97,87 %
01.03.2018 10:56 -3,1 C 0,6 C -2,2 C 52 % 0 lf 1007,1 hPa 0,0 l/m 2 min 0 min 246 W/m 40,6 km/h (6 Bft) 100,00 %
01.03.2018 10:58 -2,9 C 1,1 C -1,7 C 51 % 0 lf 1007,1 hPa 0,0 l/m 2 min 0 min 363 W/m 38,3 km/h (5 Bft) 100,00 %
01.03.2018 11:00 -2,8 C 1,1 C -1,7 C 51 % 0 lf 1007,0 hPa 0,0 l/m 2 min 0 min 394 W/m 40,6 km/h (6 Bft) 100,00 %
01.03.2018 11:02 -2,7 C 2,2 C -1,1 C 51 % 0 lf 1007,1 hPa 0,0 l/m 2 min 0 min 460 W/m 33,8 km/h (5 Bft) 97,87 %
01.03.2018 11:04 -2,6 C 3,3 C -0,6 C 51 % 0 lf 1007,0 hPa 0,0 l/m 2 min 0 min 494 W/m 38,3 km/h (5 Bft) 97,87 %
01.03.2018 11:06 -2,4 C 2,8 C -0,6 C 51 % 0 lf 1007,0 hPa 0,0 l/m 2 min 0 min 466 W/m 38,3 km/h (5 Bft) 97,87 %
01.03.2018 11:08 -2,3 C 2,2 C -0,6 C 50 % 0 lf 1007,0 hPa 0,0 l/m 2 min 0 min 472 W/m 54,1 km/h (7 Bft) 100,00 %
01.03.2018 11:10 -2,2 C 1,7 C -0,6 C 49 % 0 lf 1006,9 hPa 0,0 l/m 2 min 0 min 457 W/m 51,8 km/h (7 Bft) 95,65 %
01.03.2018 11:12 -2,1 C 2,2 C 0,0 C 49 % 0 lf 1006,9 hPa 0,0 l/m 2 min 0 min 491 W/m 38,3 km/h (5 Bft) 97,87 %
01.03.2018 11:14 -1,9 C 2,8 C 0,6 C 49 % 0 lf 1006,9 hPa 0,0 l/m 2 min 0 min 510 W/m 40,6 km/h (6 Bft) 97,87 %
01.03.2018 11:16 -1,9 C 2,8 C 1,1 C 49 % 0 lf 1006,9 hPa 0,0 l/m 2 min 0 min 507 W/m 47,3 km/h (6 Bft) 100,00 %
01.03.2018 11:18 -1,8 C 3,3 C 1,1 C 48 % 0 lf 1007,0 hPa 0,0 l/m 2 min 0 min 522 W/m 36,0 km/h (5 Bft) 100,00 %
01.03.2018 11:20 -1,6 C 2,8 C 1,1 C 48 % 0 lf 1006,7 hPa 0,0 l/m 2 min 0 min 498 W/m 47,3 km/h (6 Bft) 96,55 %
01.03.2018 11:22 -1,6 C 2,8 C 0,6 C 48 % 0 lf 1006,6 hPa 0,0 l/m 2 min 0 min 466 W/m 38,3 km/h (5 Bft) 95,45 %
01.03.2018 11:24 -1,5 C 2,2 C 0,6 C 48 % 0 lf 1006,5 hPa 0,0 l/m 2 min 0 min 452 W/m 38,3 km/h (5 Bft) 100,00 %
01.03.2018 11:26 -1,4 C 2,2 C 0,6 C 47 % 0 lf 1006,5 hPa 0,0 l/m 2 min 0 min 416 W/m 38,3 km/h (5 Bft) 100,00 %
01.03.2018 11:28 -1,4 C 2,8 C 0,6 C 47 % 0 lf 1006,5 hPa 0,0 l/m 2 min 0 min 440 W/m 40,6 km/h (6 Bft) 95,74 %
01.03.2018 11:30 -1,3 C 3,3 C 1,1 C 47 % 0 lf 1006,5 hPa 0,0 l/m 2 min 0 min 460 W/m 49,6 km/h (6 Bft) 97,87 %
01.03.2018 11:32 -1,3 C 2,2 C 1,1 C 47 % 0 lf 1006,5 hPa 0,0 l/m 2 min 0 min 452 W/m 40,6 km/h (6 Bft) 97,87 %
01.03.2018 11:34 -1,2 C 2,8 C 1,1 C 47 % 0 lf 1006,5 hPa 0,0 l/m 2 min 0 min 462 W/m 56,3 km/h (7 Bft) 95,74 %
01.03.2018 11:36 -1,1 C 3,9 C 1,1 C 47 % 0 lf 1006,4 hPa 0,0 l/m 2 min 0 min 482 W/m 42,8 km/h (6 Bft) 95,83 %
01.03.2018 11:38 -1,0 C 3,3 C 1,7 C 46 % 0 lf 1006,4 hPa 0,0 l/m 2 min 0 min 484 W/m 36,0 km/h (5 Bft) 97,87 %
01.03.2018 11:40 -0,9 C 2,8 C 1,7 C 46 % 0 lf 1006,4 hPa 0,0 l/m 2 min 0 min 435 W/m 42,8 km/h (6 Bft) 97,87 %
01.03.2018 11:42 -0,9 C 2,2 C 1,1 C 45 % 0 lf 1006,4 hPa 0,0 l/m 2 min 0 min 443 W/m 49,6 km/h (6 Bft) 97,87 %
01.03.2018 11:44 -0,8 C 2,2 C 1,1 C 45 % 0 lf 1006,4 hPa 0,0 l/m 2 min 0 min 481 W/m 42,8 km/h (6 Bft) 91,49 %
01.03.2018 11:46 -0,8 C 2,8 C 1,1 C 45 % 0 lf 1006,4 hPa 0,0 l/m 2 min 0 min 486 W/m 51,8 km/h (7 Bft) 97,87 %
01.03.2018 11:48 -0,8 C 2,8 C 1,1 C 45 % 0 lf 1006,3 hPa 0,0 l/m 2 min 0 min 466 W/m 36,0 km/h (5 Bft) 97,83 %
01.03.2018 11:50 -0,7 C 2,8 C 0,6 C 45 % 0 lf 1006,2 hPa 0,0 l/m 2 min 0 min 471 W/m 40,6 km/h (6 Bft) 93,62 %
01.03.2018 11:52 -0,7 C 3,3 C 0,6 C 45 % 0 lf 1006,3 hPa 0,0 l/m 2 min 0 min 458 W/m 36,0 km/h (5 Bft) 93,62 %
01.03.2018 11:54 -0,6 C 3,9 C 1,1 C 45 % 0 lf 1006,2 hPa 0,0 l/m 2 min 0 min 490 W/m 36,0 km/h (5 Bft) 95,83 %
01.03.2018 11:56 -0,5 C 4,4 C 1,1 C 45 % 0 lf 1006,2 hPa 0,0 l/m 2 min 0 min 490 W/m 29,3 km/h (5 Bft) 91,49 %
01.03.2018 11:58 -0,4 C 4,4 C 1,7 C 45 % 0 lf 1006,0 hPa 0,0 l/m 2 min 0 min 481 W/m 51,8 km/h (7 Bft) 95,74 %
01.03.2018 12:00 -0,3 C 4,4 C 1,1 C 45 % 0 lf 1006,1 hPa 0,0 l/m 2 min 0 min 497 W/m 40,6 km/h (6 Bft) 89,36 %
01.03.2018 12:02 -0,2 C 3,9 C 1,1 C 45 % 0 lf 1006,1 hPa 0,0 l/m 2 min 0 min 481 W/m 56,3 km/h (7 Bft) 97,22 %
01.03.2018 12:04 -0,1 C 3,9 C 0,6 C 44 % 0 lf 1006,0 hPa 0,0 l/m 2 min 0 min 450 W/m 45,1 km/h (6 Bft) 93,62 %
01.03.2018 12:06 -0,1 C 3,9 C 0,6 C 44 % 0 lf 1005,9 hPa 0,0 l/m 2 min 0 min 473 W/m 45,1 km/h (6 Bft) 93,62 %
01.03.2018 12:08 -0,1 C 3,9 C 0,0 C 44 % 0 lf 1005,8 hPa 0,0 l/m 2 min 0 min 484 W/m 49,6 km/h (6 Bft) 95,65 %
01.03.2018 12:10 -0,1 C 3,3 C 0,0 C 43 % 0 lf 1005,7 hPa 0,0 l/m 2 min 0 min 480 W/m 60,8 km/h (7 Bft) 97,87 %
01.03.2018 12:12 -0,1 C 2,8 C 0,0 C 43 % 0 lf 1005,8 hPa 0,0 l/m 2 min 0 min 405 W/m 42,8 km/h (6 Bft) 95,74 %
01.03.2018 12:14 -0,1 C 3,9 C 0,0 C 44 % 0 lf 1005,8 hPa 0,0 l/m 2 min 0 min 349 W/m 33,8 km/h (5 Bft) 93,62 %
01.03.2018 12:16 0,0 C 3,9 C 0,0 C 44 % 0 lf 1005,7 hPa 0,0 l/m 2 min 0 min 326 W/m 47,3 km/h (6 Bft) 95,74 %
01.03.2018 12:18 0,0 C 2,2 C 0,0 C 43 % 0 lf 1005,7 hPa 0,0 l/m 2 min 0 min 300 W/m 54,1 km/h (7 Bft) 91,30 %
01.03.2018 12:20 -0,1 C 1,7 C -0,6 C 43 % 0 lf 1005,7 hPa 0,0 l/m 0 min 0 min 254 W/m 42,8 km/h (6 Bft) 94,34 %
01.03.2018 12:22 -0,1 C 1,1 C -0,6 C 43 % 0 lf 1005,7 hPa 0,0 l/m 0 min 0 min 234 W/m 40,6 km/h (6 Bft) 95,12 %
01.03.2018 12:24 -0,1 C 1,1 C -0,6 C 43 % 0 lf 1005,7 hPa 0,0 l/m 0 min 0 min 236 W/m 49,6 km/h (6 Bft) 91,49 %
01.03.2018 12:26 -0,2 C 1,1 C 0,0 C 43 % 0 lf 1005,6 hPa 0,0 l/m 0 min 0 min 237 W/m 40,6 km/h (6 Bft) 95,74 %
01.03.2018 12:28 -0,2 C 0,6 C -0,6 C 43 % 0 lf 1005,5 hPa 0,0 l/m 0 min 0 min 237 W/m 38,3 km/h (5 Bft) 93,62 %
01.03.2018 12:30 -0,3 C 1,1 C 0,0 C 43 % 0 lf 1005,5 hPa 0,0 l/m 0 min 0 min 243 W/m 38,3 km/h (5 Bft) 95,65 %
01.03.2018 12:32 -0,3 C 1,1 C 0,0 C 44 % 0 lf 1005,5 hPa 0,0 l/m 0 min 0 min 254 W/m 45,1 km/h (6 Bft) 97,87 %
01.03.2018 12:34 -0,3 C 1,1 C 0,0 C 44 % 0 lf 1005,5 hPa 0,0 l/m 2 min 0 min 272 W/m 36,0 km/h (5 Bft) 95,74 %
01.03.2018 12:36 -0,3 C 1,1 C 0,0 C 44 % 0 lf 1005,5 hPa 0,0 l/m 2 min 0 min 305 W/m 38,3 km/h (5 Bft) 95,74 %
01.03.2018 12:38 -0,3 C 1,7 C 0,0 C 44 % 0 lf 1005,5 hPa 0,0 l/m 2 min 0 min 321 W/m 38,3 km/h (5 Bft) 95,74 %
01.03.2018 12:40 -0,3 C 2,2 C 0,6 C 44 % 0 lf 1005,5 hPa 0,0 l/m 2 min 0 min 351 W/m 51,8 km/h (7 Bft) 95,74 %
01.03.2018 12:42 -0,3 C 2,2 C 0,6 C 44 % 0 lf 1005,4 hPa 0,0 l/m 2 min 0 min 335 W/m 47,3 km/h (6 Bft) 97,83 %
01.03.2018 12:44 -0,2 C 2,2 C 1,1 C 44 % 0 lf 1005,4 hPa 0,0 l/m 2 min 0 min 365 W/m 31,5 km/h (5 Bft) 95,74 %
01.03.2018 12:46 -0,2 C 2,2 C 1,1 C 44 % 0 lf 1005,4 hPa 0,0 l/m 2 min 0 min 390 W/m 38,3 km/h (5 Bft) 95,83 %
01.03.2018 12:48 -0,1 C 2,8 C 1,1 C 44 % 0 lf 1005,4 hPa 0,0 l/m 2 min 0 min 407 W/m 36,0 km/h (5 Bft) 97,87 %
01.03.2018 12:50 -0,1 C 2,8 C 1,1 C 43 % 0 lf 1005,3 hPa 0,0 l/m 2 min 0 min 461 W/m 40,6 km/h (6 Bft) 89,58 %
01.03.2018 12:52 0,0 C 3,3 C 1,1 C 43 % 0 lf 1005,3 hPa 0,0 l/m 2 min 0 min 431 W/m 33,8 km/h (5 Bft) 97,87 %
01.03.2018 12:54 0,1 C 3,9 C 1,1 C 43 % 0 lf 1005,3 hPa 0,0 l/m 2 min 0 min 435 W/m 56,3 km/h (7 Bft) 93,48 %
01.03.2018 12:56 0,2 C 4,4 C 1,1 C 43 % 0 lf 1005,2 hPa 0,0 l/m 2 min 0 min 439 W/m 47,3 km/h (6 Bft) 93,62 %
01.03.2018 12:58 0,3 C 4,4 C 1,1 C 43 % 0 lf 1005,1 hPa 0,0 l/m 2 min 0 min 491 W/m 60,8 km/h (7 Bft) 95,74 %
01.03.2018 13:00 0,4 C 4,4 C 1,1 C 42 % 0 lf 1005,1 hPa 0,0 l/m 2 min 0 min 594 W/m 40,6 km/h (6 Bft) 95,74 %
01.03.2018 13:02 0,5 C 3,9 C 1,1 C 42 % 0 lf 1005,2 hPa 0,0 l/m 2 min 0 min 558 W/m 58,6 km/h (7 Bft) 93,62 %
01.03.2018 13:04 0,5 C 3,9 C 1,1 C 42 % 0 lf 1005,1 hPa 0,0 l/m 2 min 0 min 428 W/m 47,3 km/h (6 Bft) 95,74 %
01.03.2018 13:06 0,6 C 3,3 C 1,7 C 42 % 0 lf 1005,1 hPa 0,0 l/m 2 min 0 min 386 W/m 40,6 km/h (6 Bft) 95,65 %
01.03.2018 13:08 0,7 C 3,9 C 1,7 C 42 % 0 lf 1005,0 hPa 0,0 l/m 2 min 0 min 378 W/m 33,8 km/h (5 Bft) 95,74 %
01.03.2018 13:10 0,7 C 3,9 C 1,7 C 42 % 0 lf 1005,1 hPa 0,0 l/m 2 min 0 min 478 W/m 47,3 km/h (6 Bft) 97,87 %
01.03.2018 13:12 0,8 C 4,4 C 1,7 C 41 % 0 lf 1005,1 hPa 0,0 l/m 2 min 0 min 458 W/m 38,3 km/h (5 Bft) 93,62 %
01.03.2018 13:14 0,8 C 3,9 C 1,7 C 41 % 0 lf 1005,0 hPa 0,0 l/m 2 min 0 min 407 W/m 38,3 km/h (5 Bft) 95,74 %
01.03.2018 13:16 0,8 C 2,8 C 1,1 C 41 % 0 lf 1005,0 hPa 0,0 l/m 2 min 0 min 353 W/m 54,1 km/h (7 Bft) 97,83 %
01.03.2018 13:18 0,9 C 2,8 C 1,7 C 41 % 0 lf 1005,0 hPa 0,0 l/m 2 min 0 min 350 W/m 38,3 km/h (5 Bft) 97,87 %
01.03.2018 13:20 0,9 C 2,8 C 1,7 C 41 % 0 lf 1004,9 hPa 0,0 l/m 2 min 0 min 349 W/m 38,3 km/h (5 Bft) 97,87 %
01.03.2018 13:22 0,9 C 2,8 C 1,7 C 41 % 0 lf 1004,9 hPa 0,0 l/m 2 min 0 min 349 W/m 31,5 km/h (5 Bft) 93,62 %
01.03.2018 13:24 0,9 C 2,8 C 1,7 C 41 % 0 lf 1004,9 hPa 0,0 l/m 2 min 0 min 352 W/m 38,3 km/h (5 Bft) 98,15 %
01.03.2018 13:26 0,9 C 3,3 C 2,2 C 41 % 0 lf 1005,0 hPa 0,0 l/m 2 min 0 min 347 W/m 47,3 km/h (6 Bft) 97,87 %
01.03.2018 13:28 0,9 C 2,8 C 2,2 C 41 % 0 lf 1004,9 hPa 0,0 l/m 2 min 0 min 346 W/m 38,3 km/h (5 Bft) 97,87 %
01.03.2018 13:30 0,9 C 2,2 C 1,7 C 41 % 0 lf 1004,9 hPa 0,0 l/m 2 min 0 min 331 W/m 38,3 km/h (5 Bft) 93,62 %
01.03.2018 13:32 0,9 C 2,2 C 1,7 C 41 % 0 lf 1004,8 hPa 0,0 l/m 2 min 0 min 309 W/m 45,1 km/h (6 Bft) 97,83 %
01.03.2018 13:34 0,9 C 2,2 C 1,7 C 41 % 0 lf 1004,9 hPa 0,0 l/m 2 min 0 min 285 W/m 38,3 km/h (5 Bft) 97,87 %
01.03.2018 13:36 0,9 C 2,2 C 1,7 C 41 % 0 lf 1004,7 hPa 0,0 l/m 2 min 0 min 273 W/m 58,6 km/h (7 Bft) 97,87 %
01.03.2018 13:38 0,9 C 2,2 C 1,7 C 41 % 0 lf 1004,7 hPa 0,0 l/m 2 min 0 min 265 W/m 45,1 km/h (6 Bft) 97,87 %
01.03.2018 13:40 0,9 C 2,2 C 1,7 C 41 % 0 lf 1004,7 hPa 0,0 l/m 2 min 0 min 271 W/m 40,6 km/h (6 Bft) 100,00 %
01.03.2018 13:42 0,9 C 2,2 C 1,7 C 41 % 0 lf 1004,7 hPa 0,0 l/m 2 min 0 min 284 W/m 45,1 km/h (6 Bft) 97,87 %
01.03.2018 13:44 0,9 C 2,2 C 1,7 C 41 % 0 lf 1004,6 hPa 0,0 l/m 2 min 0 min 298 W/m 49,6 km/h (6 Bft) 100,00 %
01.03.2018 13:46 0,9 C 2,8 C 2,2 C 41 % 0 lf 1004,6 hPa 0,0 l/m 2 min 0 min 305 W/m 38,3 km/h (5 Bft) 97,87 %
01.03.2018 13:48 0,9 C 2,2 C 1,7 C 41 % 0 lf 1004,5 hPa 0,0 l/m 2 min 0 min 299 W/m 56,3 km/h (7 Bft) 100,00 %
01.03.2018 13:50 0,9 C 2,2 C 1,7 C 41 % 0 lf 1004,4 hPa 0,0 l/m 2 min 0 min 299 W/m 47,3 km/h (6 Bft) 100,00 %
01.03.2018 13:52 1,0 C 2,8 C 2,2 C 41 % 0 lf 1004,4 hPa 0,0 l/m 2 min 0 min 325 W/m 40,6 km/h (6 Bft) 100,00 %
01.03.2018 13:54 1,1 C 2,8 C 2,2 C 41 % 0 lf 1004,3 hPa 0,0 l/m 2 min 0 min 341 W/m 45,1 km/h (6 Bft) 100,00 %
01.03.2018 13:56 1,1 C 2,8 C 2,2 C 41 % 0 lf 1004,2 hPa 0,0 l/m 2 min 0 min 324 W/m 31,5 km/h (5 Bft) 100,00 %
01.03.2018 13:58 1,1 C 2,8 C 2,2 C 41 % 0 lf 1004,3 hPa 0,0 l/m 2 min 0 min 305 W/m 51,8 km/h (7 Bft) 100,00 %
01.03.2018 14:00 1,1 C 2,8 C 2,2 C 41 % 0 lf 1004,3 hPa 0,0 l/m 2 min 0 min 303 W/m 42,8 km/h (6 Bft) 93,62 %
01.03.2018 14:02 1,2 C 2,8 C 2,2 C 41 % 0 lf 1004,2 hPa 0,0 l/m 2 min 0 min 307 W/m 49,6 km/h (6 Bft) 95,74 %
01.03.2018 14:04 1,2 C 2,8 C 2,2 C 41 % 0 lf 1004,2 hPa 0,0 l/m 2 min 0 min 300 W/m 49,6 km/h (6 Bft) 100,00 %
01.03.2018 14:06 1,2 C 2,8 C 1,7 C 40 % 0 lf 1004,0 hPa 0,0 l/m 2 min 0 min 307 W/m 47,3 km/h (6 Bft) 100,00 %
01.03.2018 14:08 1,2 C 2,8 C 2,2 C 40 % 0 lf 1004,1 hPa 0,0 l/m 2 min 0 min 316 W/m 38,3 km/h (5 Bft) 100,00 %
01.03.2018 14:10 1,3 C 3,3 C 2,2 C 40 % 0 lf 1004,1 hPa 0,0 l/m 2 min 0 min 326 W/m 33,8 km/h (5 Bft) 100,00 %
01.03.2018 14:12 1,3 C 2,8 C 2,2 C 41 % 0 lf 1004,1 hPa 0,0 l/m 2 min 0 min 333 W/m 54,1 km/h (7 Bft) 95,74 %
01.03.2018 14:14 1,3 C 2,8 C 2,2 C 41 % 0 lf 1004,0 hPa 0,0 l/m 2 min 0 min 316 W/m 54,1 km/h (7 Bft) 100,00 %
01.03.2018 14:16 1,3 C 2,8 C 2,2 C 40 % 0 lf 1004,0 hPa 0,0 l/m 2 min 0 min 305 W/m 56,3 km/h (7 Bft) 100,00 %
01.03.2018 14:18 1,3 C 2,2 C 1,7 C 40 % 0 lf 1004,0 hPa 0,0 l/m 2 min 0 min 298 W/m 56,3 km/h (7 Bft) 97,83 %
01.03.2018 14:20 1,3 C 2,8 C 1,7 C 40 % 0 lf 1003,9 hPa 0,0 l/m 2 min 0 min 286 W/m 45,1 km/h (6 Bft) 95,74 %
01.03.2018 14:22 1,3 C 2,8 C 1,7 C 41 % 0 lf 1003,9 hPa 0,0 l/m 2 min 0 min 274 W/m 45,1 km/h (6 Bft) 100,00 %
01.03.2018 14:24 1,4 C 2,8 C 2,2 C 41 % 0 lf 1003,9 hPa 0,0 l/m 2 min 0 min 277 W/m 33,8 km/h (5 Bft) 95,74 %
01.03.2018 14:26 1,4 C 2,8 C 2,2 C 41 % 0 lf 1003,9 hPa 0,0 l/m 2 min 0 min 266 W/m 38,3 km/h (5 Bft) 97,87 %
01.03.2018 14:28 1,4 C 2,8 C 2,2 C 40 % 0 lf 1003,9 hPa 0,0 l/m 2 min 0 min 279 W/m 47,3 km/h (6 Bft) 97,87 %
01.03.2018 14:30 1,4 C 3,3 C 1,7 C 40 % 0 lf 1003,8 hPa 0,0 l/m 2 min 0 min 282 W/m 31,5 km/h (5 Bft) 97,87 %
01.03.2018 14:32 1,5 C 3,3 C 2,2 C 41 % 0 lf 1003,8 hPa 0,0 l/m 2 min 0 min 278 W/m 47,3 km/h (6 Bft) 95,65 %
01.03.2018 14:34 1,6 C 3,3 C 1,7 C 40 % 0 lf 1003,8 hPa 0,0 l/m 2 min 0 min 273 W/m 38,3 km/h (5 Bft) 93,62 %
01.03.2018 14:36 1,6 C 3,3 C 1,7 C 40 % 0 lf 1003,9 hPa 0,0 l/m 2 min 0 min 269 W/m 36,0 km/h (5 Bft) 95,74 %
01.03.2018 14:38 1,6 C 3,3 C 2,2 C 40 % 0 lf 1003,8 hPa 0,0 l/m 2 min 0 min 275 W/m 31,5 km/h (5 Bft) 95,74 %
01.03.2018 14:40 1,6 C 3,3 C 1,7 C 41 % 0 lf 1003,8 hPa 0,0 l/m 2 min 0 min 277 W/m 33,8 km/h (5 Bft) 97,87 %
01.03.2018 14:42 1,6 C 3,3 C 1,7 C 42 % 0 lf 1003,7 hPa 0,0 l/m 2 min 0 min 287 W/m 33,8 km/h (5 Bft) 97,83 %
01.03.2018 14:44 1,6 C 3,9 C 1,7 C 42 % 0 lf 1003,7 hPa 0,0 l/m 2 min 0 min 302 W/m 29,3 km/h (5 Bft) 91,49 %
01.03.2018 14:46 1,6 C 3,3 C 1,7 C 42 % 0 lf 1003,7 hPa 0,0 l/m 2 min 0 min 313 W/m 36,0 km/h (5 Bft) 93,62 %
01.03.2018 14:48 1,6 C 4,4 C 1,7 C 42 % 0 lf 1003,7 hPa 0,0 l/m 2 min 0 min 319 W/m 29,3 km/h (5 Bft) 95,74 %
01.03.2018 14:50 1,7 C 4,4 C 2,2 C 42 % 0 lf 1003,6 hPa 0,0 l/m 2 min 0 min 340 W/m 33,8 km/h (5 Bft) 95,74 %
01.03.2018 14:52 1,7 C 4,4 C 2,2 C 43 % 0 lf 1003,5 hPa 0,0 l/m 2 min 0 min 360 W/m 33,8 km/h (5 Bft) 93,62 %
01.03.2018 14:54 1,7 C 5,6 C 1,7 C 43 % 0 lf 1003,4 hPa 0,0 l/m 2 min 0 min 380 W/m 22,5 km/h (4 Bft) 95,65 %
01.03.2018 14:56 1,8 C 6,7 C 1,7 C 43 % 0 lf 1003,4 hPa 0,0 l/m 2 min 0 min 351 W/m 33,8 km/h (5 Bft) 93,62 %
01.03.2018 14:58 1,9 C 6,1 C 1,7 C 41 % 0 lf 1003,3 hPa 0,0 l/m 2 min 0 min 373 W/m 36,0 km/h (5 Bft) 95,74 %
01.03.2018 15:00 2,0 C 6,1 C 1,7 C 41 % 0 lf 1003,3 hPa 0,0 l/m 2 min 0 min 368 W/m 36,0 km/h (5 Bft) 93,62 %
01.03.2018 15:02 2,1 C 6,1 C 1,7 C 40 % 0 lf 1003,3 hPa 0,0 l/m 2 min 0 min 363 W/m 40,6 km/h (6 Bft) 95,92 %
01.03.2018 15:04 2,2 C 5,0 C 1,7 C 41 % 0 lf 1003,3 hPa 0,0 l/m 2 min 0 min 346 W/m 42,8 km/h (6 Bft) 95,74 %
01.03.2018 15:06 2,2 C 5,6 C 1,7 C 41 % 0 lf 1003,3 hPa 0,0 l/m 2 min 0 min 322 W/m 33,8 km/h (5 Bft) 95,65 %
01.03.2018 15:08 2,1 C 4,4 C 1,1 C 41 % 0 lf 1003,3 hPa 0,0 l/m 2 min 0 min 295 W/m 31,5 km/h (5 Bft) 95,74 %
01.03.2018 15:10 2,1 C 4,4 C 1,1 C 42 % 0 lf 1003,4 hPa 0,0 l/m 2 min 0 min 266 W/m 36,0 km/h (5 Bft) 91,49 %
01.03.2018 15:12 2,1 C 4,4 C 0,6 C 42 % 0 lf 1003,4 hPa 0,0 l/m 2 min 0 min 263 W/m 31,5 km/h (5 Bft) 95,74 %
01.03.2018 15:14 2,0 C 4,4 C 0,6 C 42 % 0 lf 1003,4 hPa 0,0 l/m 2 min 0 min 284 W/m 36,0 km/h (5 Bft) 95,74 %
01.03.2018 15:16 1,9 C 4,4 C 0,6 C 42 % 0 lf 1003,4 hPa 0,0 l/m 2 min 0 min 327 W/m 40,6 km/h (6 Bft) 95,65 %
01.03.2018 15:18 1,9 C 5,0 C 0,6 C 42 % 0 lf 1003,4 hPa 0,0 l/m 2 min 0 min 302 W/m 45,1 km/h (6 Bft) 93,62 %
01.03.2018 15:20 1,8 C 4,4 C 0,6 C 42 % 0 lf 1003,2 hPa 0,0 l/m 2 min 0 min 298 W/m 51,8 km/h (7 Bft) 93,62 %
01.03.2018 15:22 1,8 C 5,0 C 0,6 C 42 % 0 lf 1003,3 hPa 0,0 l/m 2 min 0 min 292 W/m 38,3 km/h (5 Bft) 95,74 %
01.03.2018 15:24 1,8 C 3,9 C 0,6 C 42 % 0 lf 1003,3 hPa 0,0 l/m 2 min 0 min 280 W/m 40,6 km/h (6 Bft) 95,74 %
01.03.2018 15:26 1,8 C 4,4 C 0,6 C 42 % 0 lf 1003,2 hPa 0,0 l/m 2 min 0 min 284 W/m 47,3 km/h (6 Bft) 93,62 %
01.03.2018 15:28 1,7 C 3,9 C 0,6 C 42 % 0 lf 1003,0 hPa 0,0 l/m 2 min 0 min 281 W/m 36,0 km/h (5 Bft) 93,48 %
01.03.2018 15:30 1,7 C 4,4 C 0,6 C 43 % 0 lf 1003,1 hPa 0,0 l/m 2 min 0 min 288 W/m 33,8 km/h (5 Bft) 93,62 %
01.03.2018 15:32 1,6 C 3,3 C 0,6 C 42 % 0 lf 1003,1 hPa 0,0 l/m 2 min 0 min 289 W/m 49,6 km/h (6 Bft) 93,62 %
01.03.2018 15:34 1,6 C 3,9 C 0,6 C 43 % 0 lf 1003,1 hPa 0,0 l/m 2 min 0 min 284 W/m 24,8 km/h (4 Bft) 93,62 %
01.03.2018 15:36 1,6 C 3,9 C 0,6 C 43 % 0 lf 1003,0 hPa 0,0 l/m 2 min 0 min 277 W/m 36,0 km/h (5 Bft) 93,62 %
01.03.2018 15:38 1,6 C 4,4 C 0,6 C 43 % 0 lf 1003,0 hPa 0,0 l/m 2 min 0 min 274 W/m 42,8 km/h (6 Bft) 93,62 %
01.03.2018 15:40 1,6 C 4,4 C 0,6 C 43 % 0 lf 1002,9 hPa 0,0 l/m 2 min 0 min 273 W/m 47,3 km/h (6 Bft) 93,48 %
01.03.2018 15:42 1,7 C 4,4 C 1,1 C 43 % 0 lf 1002,9 hPa 0,0 l/m 2 min 0 min 279 W/m 36,0 km/h (5 Bft) 91,49 %
01.03.2018 15:44 1,7 C 3,9 C 1,1 C 43 % 0 lf 1003,0 hPa 0,0 l/m 2 min 0 min 283 W/m 38,3 km/h (5 Bft) 95,74 %
01.03.2018 15:46 1,7 C 4,4 C 1,1 C 43 % 0 lf 1002,9 hPa 0,0 l/m 2 min 0 min 280 W/m 24,8 km/h (4 Bft) 93,62 %
01.03.2018 15:48 1,7 C 4,4 C 1,1 C 43 % 0 lf 1002,9 hPa 0,0 l/m 2 min 0 min 252 W/m 31,5 km/h (5 Bft) 93,62 %
01.03.2018 15:50 1,7 C 5,0 C 1,1 C 44 % 0 lf 1002,8 hPa 0,0 l/m 2 min 0 min 258 W/m 31,5 km/h (5 Bft) 93,62 %
01.03.2018 15:52 1,7 C 5,0 C 1,1 C 43 % 0 lf 1002,8 hPa 0,0 l/m 2 min 0 min 254 W/m 38,3 km/h (5 Bft) 95,65 %
01.03.2018 15:54 1,8 C 3,9 C 0,6 C 43 % 0 lf 1002,8 hPa 0,0 l/m 2 min 0 min 251 W/m 49,6 km/h (6 Bft) 95,74 %
01.03.2018 15:56 1,7 C 3,3 C 0,6 C 43 % 0 lf 1002,8 hPa 0,0 l/m 2 min 0 min 258 W/m 40,6 km/h (6 Bft) 93,62 %
01.03.2018 15:58 1,7 C 3,3 C 0,6 C 43 % 0 lf 1002,8 hPa 0,0 l/m 2 min 0 min 252 W/m 40,6 km/h (6 Bft) 93,62 %
01.03.2018 16:00 1,6 C 3,9 C 0,6 C 43 % 0 lf 1002,7 hPa 0,0 l/m 2 min 0 min 266 W/m 33,8 km/h (5 Bft) 93,62 %
01.03.2018 16:02 1,6 C 4,4 C 0,6 C 43 % 0 lf 1002,7 hPa 0,0 l/m 2 min 0 min 266 W/m 36,0 km/h (5 Bft) 97,87 %
01.03.2018 16:04 1,6 C 4,4 C 0,6 C 44 % 0 lf 1002,7 hPa 0,0 l/m 2 min 0 min 254 W/m 45,1 km/h (6 Bft) 97,83 %
01.03.2018 16:06 1,6 C 4,4 C 0,6 C 43 % 0 lf 1002,7 hPa 0,0 l/m 2 min 0 min 255 W/m 38,3 km/h (5 Bft) 95,74 %
01.03.2018 16:08 1,7 C 3,9 C 0,6 C 43 % 0 lf 1002,6 hPa 0,0 l/m 2 min 0 min 238 W/m 36,0 km/h (5 Bft) 93,62 %
01.03.2018 16:10 1,6 C 3,9 C 0,6 C 43 % 0 lf 1002,7 hPa 0,0 l/m 2 min 0 min 215 W/m 31,5 km/h (5 Bft) 95,74 %
01.03.2018 16:12 1,6 C 2,8 C 0,6 C 43 % 0 lf 1002,6 hPa 0,0 l/m 2 min 0 min 208 W/m 47,3 km/h (6 Bft) 97,87 %
01.03.2018 16:14 1,6 C 2,2 C 0,6 C 43 % 0 lf 1002,5 hPa 0,0 l/m 2 min 0 min 198 W/m 51,8 km/h (7 Bft) 100,00 %
01.03.2018 16:16 1,5 C 2,2 C 0,6 C 43 % 0 lf 1002,4 hPa 0,0 l/m 2 min 0 min 189 W/m 40,6 km/h (6 Bft) 95,65 %
01.03.2018 16:18 1,4 C 2,2 C 0,0 C 43 % 0 lf 1002,4 hPa 0,0 l/m 2 min 0 min 189 W/m 31,5 km/h (5 Bft) 100,00 %
01.03.2018 16:20 1,4 C 2,8 C 0,0 C 44 % 0 lf 1002,4 hPa 0,0 l/m 2 min 0 min 180 W/m 31,5 km/h (5 Bft) 97,87 %
01.03.2018 16:22 1,3 C 2,2 C 0,0 C 44 % 0 lf 1002,4 hPa 0,0 l/m 2 min 0 min 172 W/m 24,8 km/h (4 Bft) 100,00 %
01.03.2018 16:24 1,3 C 2,2 C 0,0 C 44 % 0 lf 1002,3 hPa 0,0 l/m 2 min 0 min 176 W/m 33,8 km/h (5 Bft) 100,00 %
01.03.2018 16:26 1,3 C 2,2 C 0,0 C 44 % 0 lf 1002,3 hPa 0,0 l/m 2 min 0 min 185 W/m 42,8 km/h (6 Bft) 100,00 %
01.03.2018 16:28 1,3 C 2,2 C 0,0 C 44 % 0 lf 1002,4 hPa 0,0 l/m 2 min 0 min 181 W/m 31,5 km/h (5 Bft) 100,00 %
01.03.2018 16:30 1,3 C 2,2 C 0,0 C 44 % 0 lf 1002,3 hPa 0,0 l/m 2 min 0 min 168 W/m 49,6 km/h (6 Bft) 97,87 %
01.03.2018 16:32 1,2 C 1,7 C 0,0 C 44 % 0 lf 1002,3 hPa 0,0 l/m 2 min 0 min 170 W/m 38,3 km/h (5 Bft) 93,62 %
01.03.2018 16:34 1,2 C 1,7 C 0,0 C 44 % 0 lf 1002,3 hPa 0,0 l/m 2 min 0 min 168 W/m 38,3 km/h (5 Bft) 100,00 %
01.03.2018 16:36 1,2 C 1,7 C 0,0 C 44 % 0 lf 1002,3 hPa 0,0 l/m 2 min 0 min 174 W/m 33,8 km/h (5 Bft) 95,74 %
01.03.2018 16:38 1,1 C 1,1 C 0,0 C 44 % 0 lf 1002,3 hPa 0,0 l/m 2 min 0 min 166 W/m 29,3 km/h (5 Bft) 97,83 %
01.03.2018 16:40 1,1 C 1,1 C 0,0 C 44 % 0 lf 1002,3 hPa 0,0 l/m 2 min 0 min 158 W/m 31,5 km/h (5 Bft) 100,00 %
01.03.2018 16:42 1,1 C 1,1 C 0,0 C 44 % 0 lf 1002,3 hPa 0,0 l/m 2 min 0 min 151 W/m 31,5 km/h (5 Bft) 100,00 %
01.03.2018 16:44 1,0 C 1,1 C 0,0 C 44 % 0 lf 1002,2 hPa 0,0 l/m 2 min 0 min 142 W/m 38,3 km/h (5 Bft) 100,00 %
01.03.2018 16:46 1,0 C 1,1 C 0,0 C 44 % 0 lf 1002,2 hPa 0,0 l/m 2 min 0 min 130 W/m 33,8 km/h (5 Bft) 93,62 %
01.03.2018 16:48 0,9 C 1,1 C 0,0 C 44 % 0 lf 1002,2 hPa 0,0 l/m 2 min 0 min 122 W/m 49,6 km/h (6 Bft) 100,00 %
01.03.2018 16:50 0,9 C 1,1 C -0,6 C 45 % 0 lf 1002,1 hPa 0,0 l/m 2 min 0 min 121 W/m 42,8 km/h (6 Bft) 93,48 %
01.03.2018 16:52 0,8 C 1,1 C -0,6 C 45 % 0 lf 1002,1 hPa 0,0 l/m 2 min 0 min 114 W/m 54,1 km/h (7 Bft) 97,87 %
01.03.2018 16:54 0,8 C 0,6 C -0,6 C 45 % 0 lf 1002,1 hPa 0,0 l/m 2 min 0 min 104 W/m 47,3 km/h (6 Bft) 97,87 %
01.03.2018 16:56 0,7 C 0,6 C -0,6 C 45 % 0 lf 1002,1 hPa 0,0 l/m 2 min 0 min 101 W/m 51,8 km/h (7 Bft) 100,00 %
01.03.2018 16:58 0,6 C 0,6 C -1,1 C 45 % 0 lf 1002,2 hPa 0,0 l/m 2 min 0 min 100 W/m 38,3 km/h (5 Bft) 100,00 %
01.03.2018 17:00 0,6 C 0,6 C -1,1 C 45 % 0 lf 1002,2 hPa 0,0 l/m 2 min 0 min 99 W/m 42,8 km/h (6 Bft) 100,00 %
01.03.2018 17:02 0,5 C 0,6 C -1,1 C 45 % 0 lf 1002,2 hPa 0,0 l/m 2 min 0 min 95 W/m 31,5 km/h (5 Bft) 97,83 %
01.03.2018 17:04 0,5 C 0,6 C -1,1 C 45 % 0 lf 1002,2 hPa 0,0 l/m 2 min 0 min 88 W/m 40,6 km/h (6 Bft) 95,74 %
01.03.2018 17:06 0,5 C 0,6 C -1,1 C 46 % 0 lf 1002,2 hPa 0,0 l/m 2 min 0 min 87 W/m 29,3 km/h (5 Bft) 97,87 %
01.03.2018 17:08 0,4 C 0,6 C -1,1 C 46 % 0 lf 1002,2 hPa 0,0 l/m 2 min 0 min 85 W/m 42,8 km/h (6 Bft) 97,87 %
01.03.2018 17:10 0,4 C 0,6 C -1,1 C 46 % 0 lf 1002,2 hPa 0,0 l/m 2 min 0 min 83 W/m 31,5 km/h (5 Bft) 95,74 %
01.03.2018 17:12 0,3 C 0,6 C -1,1 C 46 % 0 lf 1002,2 hPa 0,0 l/m 2 min 0 min 91 W/m 29,3 km/h (5 Bft) 97,87 %
01.03.2018 17:14 0,3 C 0,6 C -1,1 C 46 % 0 lf 1002,3 hPa 0,0 l/m 2 min 0 min 86 W/m 36,0 km/h (5 Bft) 95,65 %
01.03.2018 17:16 0,3 C 0,0 C -1,1 C 46 % 0 lf 1002,3 hPa 0,0 l/m 2 min 0 min 77 W/m 40,6 km/h (6 Bft) 95,74 %
01.03.2018 17:18 0,2 C 0,0 C -1,1 C 46 % 0 lf 1002,3 hPa 0,0 l/m 2 min 0 min 72 W/m 40,6 km/h (6 Bft) 97,87 %
01.03.2018 17:20 0,2 C 0,0 C -1,1 C 46 % 0 lf 1002,3 hPa 0,0 l/m 2 min 0 min 67 W/m 40,6 km/h (6 Bft) 97,87 %
01.03.2018 17:22 0,2 C 0,0 C -1,1 C 46 % 0 lf 1002,3 hPa 0,0 l/m 0 min 0 min 61 W/m 33,8 km/h (5 Bft) 97,87 %
01.03.2018 17:24 0,2 C 0,0 C -1,1 C 46 % 0 lf 1002,4 hPa 0,0 l/m 0 min 0 min 56 W/m 36,0 km/h (5 Bft) 97,87 %
01.03.2018 17:26 0,1 C 0,0 C -1,1 C 46 % 0 lf 1002,4 hPa 0,0 l/m 0 min 0 min 50 W/m 29,3 km/h (5 Bft) 97,83 %
01.03.2018 17:28 0,1 C 0,0 C -1,1 C 46 % 0 lf 1002,4 hPa 0,0 l/m 0 min 0 min 49 W/m 29,3 km/h (5 Bft) 97,87 %
01.03.2018 17:30 0,1 C 0,0 C -1,7 C 46 % 0 lf 1002,5 hPa 0,0 l/m 2 min 0 min 51 W/m 31,5 km/h (5 Bft) 97,87 %
01.03.2018 17:32 0,0 C 0,0 C -1,7 C 46 % 0 lf 1002,5 hPa 0,0 l/m 2 min 0 min 49 W/m 29,3 km/h (5 Bft) 95,74 %
01.03.2018 17:34 0,0 C 0,0 C -1,7 C 46 % 0 lf 1002,5 hPa 0,0 l/m 0 min 0 min 45 W/m 29,3 km/h (5 Bft) 95,74 %
01.03.2018 17:36 -0,1 C 0,0 C -1,7 C 46 % 0 lf 1002,5 hPa 0,0 l/m 0 min 0 min 41 W/m 29,3 km/h (5 Bft) 95,65 %
01.03.2018 17:38 -0,1 C -0,6 C -1,7 C 47 % 0 lf 1002,5 hPa 0,0 l/m 0 min 0 min 37 W/m 33,8 km/h (5 Bft) 95,74 %
01.03.2018 17:40 -0,1 C -0,6 C -1,7 C 47 % 0 lf 1002,4 hPa 0,0 l/m 0 min 0 min 34 W/m 29,3 km/h (5 Bft) 97,87 %
01.03.2018 17:42 -0,2 C -0,6 C -1,7 C 47 % 0 lf 1002,4 hPa 0,0 l/m 0 min 0 min 31 W/m 29,3 km/h (5 Bft) 97,87 %
01.03.2018 17:44 -0,2 C -0,6 C -1,7 C 47 % 0 lf 1002,3 hPa 0,0 l/m 0 min 0 min 30 W/m 36,0 km/h (5 Bft) 95,74 %
01.03.2018 17:46 -0,2 C -0,6 C -2,2 C 47 % 0 lf 1002,4 hPa 0,0 l/m 0 min 0 min 28 W/m 36,0 km/h (5 Bft) 95,74 %
01.03.2018 17:48 -0,3 C -0,6 C -2,2 C 47 % 0 lf 1002,4 hPa 0,0 l/m 0 min 0 min 26 W/m 31,5 km/h (5 Bft) 95,65 %
01.03.2018 17:50 -0,3 C -0,6 C -2,2 C 47 % 0 lf 1002,4 hPa 0,0 l/m 0 min 0 min 24 W/m 38,3 km/h (5 Bft) 97,87 %
01.03.2018 17:52 -0,4 C -0,6 C -2,2 C 47 % 0 lf 1002,4 hPa 0,0 l/m 0 min 0 min 22 W/m 29,3 km/h (5 Bft) 97,87 %
01.03.2018 17:54 -0,4 C -1,1 C -2,2 C 47 % 0 lf 1002,4 hPa 0,0 l/m 2 min 0 min 20 W/m 36,0 km/h (5 Bft) 97,87 %
01.03.2018 17:56 -0,4 C -1,1 C -2,2 C 47 % 0 lf 1002,4 hPa 0,0 l/m 0 min 0 min 18 W/m 20,3 km/h (4 Bft) 97,87 %
01.03.2018 17:58 -0,5 C -1,1 C -2,2 C 48 % 0 lf 1002,5 hPa 0,0 l/m 0 min 0 min 18 W/m 22,5 km/h (4 Bft) 95,74 %
01.03.2018 18:00 -0,6 C -1,1 C -2,2 C 48 % 0 lf 1002,5 hPa 0,0 l/m 0 min 0 min 15 W/m 33,8 km/h (5 Bft) 95,65 %
01.03.2018 18:02 -0,6 C -1,1 C -2,2 C 48 % 0 lf 1002,5 hPa 0,0 l/m 0 min 0 min 13 W/m 20,3 km/h (4 Bft) 97,62 %
01.03.2018 18:04 -0,6 C -1,1 C -2,8 C 48 % 0 lf 1002,5 hPa 0,0 l/m 0 min 0 min 12 W/m 29,3 km/h (5 Bft) 97,87 %
01.03.2018 18:06 -0,7 C -1,1 C -2,8 C 48 % 0 lf 1002,5 hPa 0,0 l/m 0 min 0 min 10 W/m 31,5 km/h (5 Bft) 95,24 %
01.03.2018 18:08 -0,7 C -1,1 C -2,8 C 48 % 0 lf 1002,5 hPa 0,0 l/m 0 min 0 min 9 W/m 24,8 km/h (4 Bft) 95,74 %
01.03.2018 18:10 -0,7 C -1,1 C -2,8 C 48 % 0 lf 1002,5 hPa 0,0 l/m 0 min 0 min 7 W/m 33,8 km/h (5 Bft) 97,87 %
01.03.2018 18:12 -0,8 C -1,1 C -2,8 C 48 % 0 lf 1002,5 hPa 0,0 l/m 0 min 0 min 5 W/m 31,5 km/h (5 Bft) 95,74 %
01.03.2018 18:14 -0,8 C -1,7 C -2,8 C 49 % 0 lf 1002,5 hPa 0,0 l/m 0 min 0 min 5 W/m 31,5 km/h (5 Bft) 93,48 %
01.03.2018 18:16 -0,8 C -1,7 C -2,8 C 49 % 0 lf 1002,5 hPa 0,0 l/m 0 min 0 min 4 W/m 22,5 km/h (4 Bft) 93,62 %
01.03.2018 18:18 -0,9 C -1,7 C -2,8 C 49 % 0 lf 1002,5 hPa 0,0 l/m 0 min 0 min 0 W/m 22,5 km/h (4 Bft) 95,74 %
01.03.2018 18:20 -0,9 C -1,7 C -2,8 C 49 % 0 lf 1002,5 hPa 0,0 l/m 0 min 0 min 0 W/m 18,0 km/h (3 Bft) 96,61 %
01.03.2018 18:22 -0,9 C -1,1 C -2,8 C 49 % 0 lf 1002,5 hPa 0,0 l/m 0 min 0 min 0 W/m 24,8 km/h (4 Bft) 94,29 %
01.03.2018 18:24 -1,0 C -1,7 C -2,8 C 49 % 0 lf 1002,5 hPa 0,0 l/m 0 min 0 min 0 W/m 33,8 km/h (5 Bft) 97,87 %
01.03.2018 18:26 -1,1 C -1,7 C -2,8 C 49 % 0 lf 1002,5 hPa 0,0 l/m 0 min 0 min 0 W/m 33,8 km/h (5 Bft) 95,65 %
01.03.2018 18:28 -1,1 C -1,7 C -2,8 C 49 % 0 lf 1002,5 hPa 0,0 l/m 0 min 0 min 0 W/m 36,0 km/h (5 Bft) 95,74 %
01.03.2018 18:30 -1,1 C -1,7 C -2,8 C 49 % 0 lf 1002,4 hPa 0,0 l/m 0 min 0 min 0 W/m 33,8 km/h (5 Bft) 95,74 %
01.03.2018 18:32 -1,1 C -1,7 C -2,8 C 49 % 0 lf 1002,4 hPa 0,0 l/m 0 min 0 min 0 W/m 31,5 km/h (5 Bft) 95,74 %
01.03.2018 18:34 -1,2 C -1,7 C -2,8 C 49 % 0 lf 1002,4 hPa 0,0 l/m 0 min 0 min 0 W/m 29,3 km/h (5 Bft) 97,87 %
01.03.2018 18:36 -1,2 C -1,7 C -2,8 C 50 % 0 lf 1002,4 hPa 0,0 l/m 0 min 0 min 0 W/m 29,3 km/h (5 Bft) 93,62 %
01.03.2018 18:38 -1,2 C -1,7 C -2,8 C 50 % 0 lf 1002,4 hPa 0,0 l/m 0 min 0 min 0 W/m 29,3 km/h (5 Bft) 95,65 %
01.03.2018 18:40 -1,2 C -1,7 C -2,8 C 50 % 0 lf 1002,4 hPa 0,0 l/m 0 min 0 min 0 W/m 24,8 km/h (4 Bft) 95,74 %
01.03.2018 18:42 -1,3 C -1,7 C -3,3 C 50 % 0 lf 1002,4 hPa 0,0 l/m 0 min 0 min 0 W/m 22,5 km/h (4 Bft) 93,62 %
01.03.2018 18:44 -1,3 C -1,7 C -3,3 C 50 % 0 lf 1002,4 hPa 0,0 l/m 0 min 0 min 0 W/m 20,3 km/h (4 Bft) 93,62 %
01.03.2018 18:46 -1,3 C -1,7 C -3,3 C 50 % 0 lf 1002,5 hPa 0,0 l/m 0 min 0 min 0 W/m 24,8 km/h (4 Bft) 95,74 %
01.03.2018 18:48 -1,3 C -1,7 C -3,3 C 50 % 0 lf 1002,4 hPa 0,0 l/m 0 min 0 min 0 W/m 40,6 km/h (6 Bft) 95,74 %
01.03.2018 18:50 -1,3 C -1,7 C -2,8 C 50 % 0 lf 1002,4 hPa 0,0 l/m 0 min 0 min 0 W/m 42,8 km/h (6 Bft) 94,83 %
01.03.2018 18:52 -1,4 C -1,7 C -3,3 C 50 % 0 lf 1002,5 hPa 0,0 l/m 0 min 0 min 0 W/m 24,8 km/h (4 Bft) 97,14 %
01.03.2018 18:54 -1,4 C -1,7 C -3,3 C 50 % 0 lf 1002,5 hPa 0,0 l/m 0 min 0 min 0 W/m 38,3 km/h (5 Bft) 97,87 %
01.03.2018 18:56 -1,4 C -1,7 C -3,3 C 50 % 0 lf 1002,5 hPa 0,0 l/m 0 min 0 min 0 W/m 33,8 km/h (5 Bft) 97,87 %
01.03.2018 18:58 -1,4 C -1,7 C -3,3 C 50 % 0 lf 1002,5 hPa 0,0 l/m 0 min 0 min 0 W/m 27,0 km/h (4 Bft) 95,74 %
01.03.2018 19:00 -1,4 C -1,7 C -3,3 C 50 % 0 lf 1002,5 hPa 0,0 l/m 0 min 0 min 0 W/m 33,8 km/h (5 Bft) 97,87 %
01.03.2018 19:02 -1,4 C -1,7 C -3,3 C 50 % 0 lf 1002,6 hPa 0,0 l/m 0 min 0 min 0 W/m 22,5 km/h (4 Bft) 95,65 %
01.03.2018 19:04 -1,5 C -1,7 C -3,3 C 51 % 0 lf 1002,6 hPa 0,0 l/m 0 min 0 min 0 W/m 31,5 km/h (5 Bft) 97,87 %
01.03.2018 19:06 -1,5 C -2,2 C -3,3 C 51 % 0 lf 1002,6 hPa 0,0 l/m 0 min 0 min 0 W/m 31,5 km/h (5 Bft) 91,49 %
01.03.2018 19:08 -1,6 C -2,2 C -3,3 C 51 % 0 lf 1002,6 hPa 0,0 l/m 0 min 0 min 0 W/m 20,3 km/h (4 Bft) 97,87 %
01.03.2018 19:10 -1,6 C -2,2 C -3,3 C 51 % 0 lf 1002,5 hPa 0,0 l/m 0 min 0 min 0 W/m 27,0 km/h (4 Bft) 97,87 %
01.03.2018 19:12 -1,6 C -1,7 C -3,3 C 51 % 0 lf 1002,5 hPa 0,0 l/m 0 min 0 min 0 W/m 29,3 km/h (5 Bft) 95,74 %
01.03.2018 19:14 -1,6 C -1,7 C -3,3 C 51 % 0 lf 1002,5 hPa 0,0 l/m 0 min 0 min 0 W/m 33,8 km/h (5 Bft) 97,83 %
01.03.2018 19:16 -1,6 C -1,7 C -3,3 C 51 % 0 lf 1002,5 hPa 0,0 l/m 0 min 0 min 0 W/m 31,5 km/h (5 Bft) 97,87 %
01.03.2018 19:18 -1,6 C -1,7 C -3,3 C 51 % 0 lf 1002,4 hPa 0,0 l/m 0 min 0 min 0 W/m 31,5 km/h (5 Bft) 95,74 %
01.03.2018 19:20 -1,6 C -1,7 C -3,3 C 51 % 0 lf 1002,4 hPa 0,0 l/m 0 min 0 min 0 W/m 38,3 km/h (5 Bft) 98,28 %
01.03.2018 19:22 -1,6 C -1,7 C -3,3 C 51 % 0 lf 1002,4 hPa 0,0 l/m 0 min 0 min 0 W/m 31,5 km/h (5 Bft) 97,22 %
01.03.2018 19:24 -1,6 C -1,7 C -3,3 C 51 % 0 lf 1002,5 hPa 0,0 l/m 0 min 0 min 0 W/m 33,8 km/h (5 Bft) 93,48 %
01.03.2018 19:26 -1,6 C -1,7 C -3,3 C 51 % 0 lf 1002,4 hPa 0,0 l/m 0 min 0 min 0 W/m 22,5 km/h (4 Bft) 97,87 %
01.03.2018 19:28 -1,6 C -1,7 C -3,3 C 51 % 0 lf 1002,4 hPa 0,0 l/m 0 min 0 min 0 W/m 36,0 km/h (5 Bft) 95,74 %
01.03.2018 19:30 -1,6 C -1,7 C -3,3 C 51 % 0 lf 1002,4 hPa 0,0 l/m 0 min 0 min 0 W/m 27,0 km/h (4 Bft) 95,74 %
01.03.2018 19:32 -1,6 C -1,7 C -3,3 C 51 % 0 lf 1002,4 hPa 0,0 l/m 0 min 0 min 0 W/m 31,5 km/h (5 Bft) 97,87 %
01.03.2018 19:34 -1,6 C -1,7 C -3,3 C 51 % 0 lf 1002,4 hPa 0,0 l/m 0 min 0 min 0 W/m 24,8 km/h (4 Bft) 100,00 %
01.03.2018 19:36 -1,7 C -1,7 C -3,3 C 51 % 0 lf 1002,3 hPa 0,0 l/m 0 min 0 min 0 W/m 36,0 km/h (5 Bft) 95,65 %
01.03.2018 19:38 -1,7 C -2,2 C -3,3 C 51 % 0 lf 1002,4 hPa 0,0 l/m 0 min 0 min 0 W/m 33,8 km/h (5 Bft) 95,74 %
01.03.2018 19:40 -1,7 C -1,7 C -3,3 C 51 % 0 lf 1002,4 hPa 0,0 l/m 0 min 0 min 0 W/m 31,5 km/h (5 Bft) 95,74 %
01.03.2018 19:42 -1,7 C -2,2 C -3,3 C 51 % 0 lf 1002,4 hPa 0,0 l/m 0 min 0 min 0 W/m 31,5 km/h (5 Bft) 97,87 %
01.03.2018 19:44 -1,7 C -1,7 C -3,3 C 51 % 0 lf 1002,4 hPa 0,0 l/m 0 min 0 min 0 W/m 29,3 km/h (5 Bft) 95,74 %
01.03.2018 19:46 -1,7 C -2,2 C -3,3 C 51 % 0 lf 1002,4 hPa 0,0 l/m 0 min 0 min 0 W/m 29,3 km/h (5 Bft) 93,62 %
01.03.2018 19:48 -1,7 C -1,7 C -3,3 C 51 % 0 lf 1002,4 hPa 0,0 l/m 0 min 0 min 0 W/m 29,3 km/h (5 Bft) 93,48 %
01.03.2018 19:50 -1,8 C -2,2 C -3,3 C 51 % 0 lf 1002,4 hPa 0,0 l/m 0 min 0 min 0 W/m 24,8 km/h (4 Bft) 98,31 %
01.03.2018 19:52 -1,8 C -2,2 C -3,3 C 51 % 0 lf 1002,4 hPa 0,0 l/m 0 min 0 min 0 W/m 29,3 km/h (5 Bft) 97,14 %
01.03.2018 19:54 -1,8 C -2,2 C -3,3 C 51 % 0 lf 1002,4 hPa 0,0 l/m 0 min 0 min 0 W/m 38,3 km/h (5 Bft) 97,87 %
01.03.2018 19:56 -1,8 C -2,2 C -3,3 C 51 % 0 lf 1002,4 hPa 0,0 l/m 0 min 0 min 0 W/m 31,5 km/h (5 Bft) 93,62 %
01.03.2018 19:58 -1,8 C -2,2 C -3,3 C 51 % 0 lf 1002,5 hPa 0,0 l/m 0 min 0 min 0 W/m 27,0 km/h (4 Bft) 97,87 %
01.03.2018 20:00 -1,8 C -2,2 C -3,3 C 51 % 0 lf 1002,5 hPa 0,0 l/m 0 min 0 min 0 W/m 33,8 km/h (5 Bft) 97,83 %
01.03.2018 20:02 -1,8 C -2,2 C -3,3 C 51 % 0 lf 1002,4 hPa 0,0 l/m 0 min 0 min 0 W/m 33,8 km/h (5 Bft) 95,74 %
01.03.2018 20:04 -1,8 C -2,2 C -3,3 C 51 % 0 lf 1002,4 hPa 0,0 l/m 0 min 0 min 0 W/m 33,8 km/h (5 Bft) 95,74 %
01.03.2018 20:06 -1,9 C -2,2 C -3,3 C 51 % 0 lf 1002,4 hPa 0,0 l/m 0 min 0 min 0 W/m 31,5 km/h (5 Bft) 93,62 %
01.03.2018 20:08 -1,9 C -2,2 C -3,3 C 51 % 0 lf 1002,4 hPa 0,0 l/m 0 min 0 min 0 W/m 33,8 km/h (5 Bft) 93,62 %
01.03.2018 20:10 -1,9 C -2,2 C -3,9 C 52 % 0 lf 1002,4 hPa 0,0 l/m 0 min 0 min 0 W/m 27,0 km/h (4 Bft) 95,65 %
01.03.2018 20:12 -1,9 C -2,2 C -3,9 C 52 % 0 lf 1002,4 hPa 0,0 l/m 0 min 0 min 0 W/m 29,3 km/h (5 Bft) 95,74 %
01.03.2018 20:14 -1,9 C -2,2 C -3,9 C 52 % 0 lf 1002,3 hPa 0,0 l/m 0 min 0 min 0 W/m 29,3 km/h (5 Bft) 95,74 %
01.03.2018 20:16 -1,9 C -2,2 C -3,9 C 52 % 0 lf 1002,3 hPa 0,0 l/m 0 min 0 min 0 W/m 24,8 km/h (4 Bft) 93,62 %
01.03.2018 20:18 -1,9 C -2,2 C -3,9 C 52 % 0 lf 1002,3 hPa 0,0 l/m 0 min 0 min 0 W/m 33,8 km/h (5 Bft) 97,87 %
01.03.2018 20:20 -2,0 C -2,2 C -3,9 C 52 % 0 lf 1002,3 hPa 0,0 l/m 0 min 0 min 0 W/m 24,8 km/h (4 Bft) 96,55 %
01.03.2018 20:22 -2,0 C -2,2 C -3,9 C 52 % 0 lf 1002,3 hPa 0,0 l/m 0 min 0 min 0 W/m 29,3 km/h (5 Bft) 94,29 %
01.03.2018 20:24 -2,0 C -2,2 C -3,9 C 52 % 0 lf 1002,3 hPa 0,0 l/m 0 min 0 min 0 W/m 33,8 km/h (5 Bft) 91,49 %
01.03.2018 20:26 -2,1 C -2,2 C -3,9 C 52 % 0 lf 1002,4 hPa 0,0 l/m 0 min 0 min 0 W/m 29,3 km/h (5 Bft) 97,92 %
01.03.2018 20:28 -2,1 C -2,2 C -3,9 C 52 % 0 lf 1002,3 hPa 0,0 l/m 0 min 0 min 0 W/m 24,8 km/h (4 Bft) 95,74 %
01.03.2018 20:30 -2,1 C -2,2 C -3,9 C 52 % 0 lf 1002,3 hPa 0,0 l/m 0 min 0 min 0 W/m 29,3 km/h (5 Bft) 97,87 %
01.03.2018 20:32 -2,1 C -2,2 C -3,9 C 52 % 0 lf 1002,3 hPa 0,0 l/m 0 min 0 min 0 W/m 27,0 km/h (4 Bft) 95,74 %
01.03.2018 20:34 -2,1 C -2,2 C -3,9 C 52 % 0 lf 1002,3 hPa 0,0 l/m 0 min 0 min 0 W/m 31,5 km/h (5 Bft) 95,65 %
01.03.2018 20:36 -2,2 C -2,2 C -3,9 C 53 % 0 lf 1002,3 hPa 0,0 l/m 0 min 0 min 0 W/m 27,0 km/h (4 Bft) 93,62 %
01.03.2018 20:38 -2,2 C -2,8 C -3,9 C 53 % 0 lf 1002,2 hPa 0,0 l/m 0 min 0 min 0 W/m 29,3 km/h (5 Bft) 95,74 %
01.03.2018 20:40 -2,2 C -2,8 C -3,9 C 53 % 0 lf 1002,2 hPa 0,0 l/m 0 min 0 min 0 W/m 31,5 km/h (5 Bft) 95,74 %
01.03.2018 20:42 -2,3 C -2,2 C -3,9 C 53 % 0 lf 1002,2 hPa 0,0 l/m 0 min 0 min 0 W/m 29,3 km/h (5 Bft) 95,74 %
01.03.2018 20:44 -2,3 C -2,8 C -3,9 C 53 % 0 lf 1002,3 hPa 0,0 l/m 0 min 0 min 0 W/m 18,0 km/h (3 Bft) 95,74 %
01.03.2018 20:46 -2,3 C -2,8 C -3,9 C 53 % 0 lf 1002,3 hPa 0,0 l/m 0 min 0 min 0 W/m 15,8 km/h (3 Bft) 93,48 %
01.03.2018 20:48 -2,3 C -2,8 C -3,9 C 53 % 0 lf 1002,2 hPa 0,0 l/m 0 min 0 min 0 W/m 36,0 km/h (5 Bft) 95,74 %
01.03.2018 20:50 -2,3 C -2,8 C -3,9 C 53 % 0 lf 1002,2 hPa 0,0 l/m 0 min 0 min 0 W/m 31,5 km/h (5 Bft) 94,92 %
01.03.2018 20:52 -2,3 C -2,8 C -3,9 C 53 % 0 lf 1002,2 hPa 0,0 l/m 0 min 0 min 0 W/m 27,0 km/h (4 Bft) 91,43 %
01.03.2018 20:54 -2,4 C -2,8 C -3,9 C 53 % 0 lf 1002,1 hPa 0,0 l/m 0 min 0 min 0 W/m 36,0 km/h (5 Bft) 95,74 %
01.03.2018 20:56 -2,4 C -2,8 C -3,9 C 53 % 0 lf 1002,0 hPa 0,0 l/m 0 min 0 min 0 W/m 33,8 km/h (5 Bft) 97,87 %
01.03.2018 20:58 -2,4 C -2,8 C -3,9 C 53 % 0 lf 1002,1 hPa 0,0 l/m 0 min 0 min 0 W/m 24,8 km/h (4 Bft) 97,83 %
01.03.2018 21:00 -2,4 C -2,8 C -3,9 C 53 % 0 lf 1002,1 hPa 0,0 l/m 0 min 0 min 0 W/m 24,8 km/h (4 Bft) 97,87 %
01.03.2018 21:02 -2,4 C -2,8 C -3,9 C 53 % 0 lf 1002,1 hPa 0,0 l/m 0 min 0 min 0 W/m 29,3 km/h (5 Bft) 97,87 %
01.03.2018 21:04 -2,4 C -2,8 C -3,9 C 53 % 0 lf 1002,1 hPa 0,0 l/m 0 min 0 min 0 W/m 29,3 km/h (5 Bft) 97,87 %
01.03.2018 21:06 -2,5 C -2,8 C -3,9 C 53 % 0 lf 1002,1 hPa 0,0 l/m 0 min 0 min 0 W/m 24,8 km/h (4 Bft) 93,62 %
01.03.2018 21:08 -2,5 C -2,8 C -3,9 C 53 % 0 lf 1002,0 hPa 0,0 l/m 0 min 0 min 0 W/m 33,8 km/h (5 Bft) 95,65 %
01.03.2018 21:10 -2,5 C -2,8 C -3,9 C 53 % 0 lf 1001,9 hPa 0,0 l/m 0 min 0 min 0 W/m 24,8 km/h (4 Bft) 97,87 %
01.03.2018 21:12 -2,6 C -2,8 C -3,9 C 53 % 0 lf 1001,9 hPa 0,0 l/m 0 min 0 min 0 W/m 29,3 km/h (5 Bft) 93,62 %
01.03.2018 21:14 -2,6 C -2,8 C -3,9 C 53 % 0 lf 1001,9 hPa 0,0 l/m 0 min 0 min 0 W/m 36,0 km/h (5 Bft) 97,87 %
01.03.2018 21:16 -2,6 C -2,8 C -4,4 C 54 % 0 lf 1001,9 hPa 0,0 l/m 0 min 0 min 0 W/m 29,3 km/h (5 Bft) 97,87 %
01.03.2018 21:18 -2,6 C -2,8 C -4,4 C 54 % 0 lf 1001,9 hPa 0,0 l/m 0 min 0 min 0 W/m 36,0 km/h (5 Bft) 97,87 %
01.03.2018 21:20 -2,6 C -2,8 C -4,4 C 54 % 0 lf 1001,9 hPa 0,0 l/m 0 min 0 min 0 W/m 27,0 km/h (4 Bft) 94,83 %
01.03.2018 21:22 -2,6 C -2,8 C -4,4 C 54 % 0 lf 1001,9 hPa 0,0 l/m 0 min 0 min 0 W/m 33,8 km/h (5 Bft) 100,00 %
01.03.2018 21:24 -2,7 C -2,8 C -4,4 C 54 % 0 lf 1001,9 hPa 0,0 l/m 0 min 0 min 0 W/m 31,5 km/h (5 Bft) 97,87 %
01.03.2018 21:26 -2,7 C -2,8 C -4,4 C 54 % 0 lf 1001,9 hPa 0,0 l/m 0 min 0 min 0 W/m 36,0 km/h (5 Bft) 100,00 %
01.03.2018 21:28 -2,7 C -2,8 C -4,4 C 54 % 0 lf 1001,9 hPa 0,0 l/m 0 min 0 min 0 W/m 24,8 km/h (4 Bft) 97,87 %
01.03.2018 21:30 -2,7 C -2,8 C -4,4 C 54 % 0 lf 1001,9 hPa 0,0 l/m 0 min 0 min 0 W/m 29,3 km/h (5 Bft) 100,00 %
01.03.2018 21:32 -2,7 C -2,8 C -4,4 C 54 % 0 lf 1001,9 hPa 0,0 l/m 0 min 0 min 0 W/m 31,5 km/h (5 Bft) 97,83 %
01.03.2018 21:34 -2,7 C -2,8 C -4,4 C 54 % 0 lf 1001,9 hPa 0,0 l/m 0 min 0 min 0 W/m 31,5 km/h (5 Bft) 97,87 %
01.03.2018 21:36 -2,8 C -3,3 C -4,4 C 54 % 0 lf 1001,9 hPa 0,0 l/m 0 min 0 min 0 W/m 31,5 km/h (5 Bft) 100,00 %
01.03.2018 21:38 -2,8 C -2,8 C -4,4 C 54 % 0 lf 1001,8 hPa 0,0 l/m 0 min 0 min 0 W/m 31,5 km/h (5 Bft) 97,87 %
01.03.2018 21:40 -2,8 C -2,8 C -4,4 C 54 % 0 lf 1001,8 hPa 0,0 l/m 0 min 0 min 0 W/m 22,5 km/h (4 Bft) 97,87 %
01.03.2018 21:42 -2,8 C -2,8 C -4,4 C 54 % 0 lf 1001,7 hPa 0,0 l/m 0 min 0 min 0 W/m 38,3 km/h (5 Bft) 93,62 %
01.03.2018 21:44 -2,8 C -3,3 C -4,4 C 54 % 0 lf 1001,8 hPa 0,0 l/m 0 min 0 min 0 W/m 31,5 km/h (5 Bft) 95,65 %
01.03.2018 21:46 -2,9 C -3,3 C -4,4 C 55 % 0 lf 1001,7 hPa 0,0 l/m 0 min 0 min 0 W/m 31,5 km/h (5 Bft) 95,74 %
01.03.2018 21:48 -2,9 C -3,3 C -4,4 C 55 % 0 lf 1001,8 hPa 0,0 l/m 0 min 0 min 0 W/m 29,3 km/h (5 Bft) 97,87 %
01.03.2018 21:50 -2,9 C -3,3 C -4,4 C 55 % 0 lf 1001,8 hPa 0,0 l/m 0 min 0 min 0 W/m 27,0 km/h (4 Bft) 96,61 %
01.03.2018 21:52 -2,9 C -3,3 C -4,4 C 55 % 0 lf 1001,8 hPa 0,0 l/m 0 min 0 min 0 W/m 31,5 km/h (5 Bft) 97,14 %
01.03.2018 21:54 -2,9 C -3,3 C -4,4 C 55 % 0 lf 1001,8 hPa 0,0 l/m 0 min 0 min 0 W/m 38,3 km/h (5 Bft) 97,87 %
01.03.2018 21:56 -3,0 C -3,3 C -4,4 C 55 % 0 lf 1001,8 hPa 0,0 l/m 0 min 0 min 0 W/m 29,3 km/h (5 Bft) 97,83 %
01.03.2018 21:58 -3,0 C -3,3 C -4,4 C 55 % 0 lf 1001,7 hPa 0,0 l/m 0 min 0 min 0 W/m 31,5 km/h (5 Bft) 91,49 %
01.03.2018 22:00 -3,0 C -3,3 C -4,4 C 55 % 0 lf 1001,7 hPa 0,0 l/m 0 min 0 min 0 W/m 33,8 km/h (5 Bft) 97,87 %
01.03.2018 22:02 -3,1 C -3,3 C -4,4 C 55 % 0 lf 1001,7 hPa 0,0 l/m 0 min 0 min 0 W/m 29,3 km/h (5 Bft) 97,87 %
01.03.2018 22:04 -3,1 C -3,3 C -4,4 C 55 % 0 lf 1001,7 hPa 0,0 l/m 0 min 0 min 0 W/m 24,8 km/h (4 Bft) 97,87 %
01.03.2018 22:06 -3,1 C -3,3 C -4,4 C 55 % 0 lf 1001,7 hPa 0,0 l/m 0 min 0 min 0 W/m 24,8 km/h (4 Bft) 97,87 %
01.03.2018 22:08 -3,1 C -3,3 C -4,4 C 55 % 0 lf 1001,7 hPa 0,0 l/m 0 min 0 min 0 W/m 36,0 km/h (5 Bft) 97,83 %
01.03.2018 22:10 -3,1 C -3,3 C -4,4 C 55 % 0 lf 1001,8 hPa 0,0 l/m 0 min 0 min 0 W/m 24,8 km/h (4 Bft) 95,74 %
01.03.2018 22:12 -3,1 C -3,3 C -4,4 C 55 % 0 lf 1001,8 hPa 0,0 l/m 0 min 0 min 0 W/m 29,3 km/h (5 Bft) 100,00 %
01.03.2018 22:14 -3,1 C -3,3 C -4,4 C 55 % 0 lf 1001,8 hPa 0,0 l/m 0 min 0 min 0 W/m 29,3 km/h (5 Bft) 97,87 %
01.03.2018 22:16 -3,2 C -3,3 C -4,4 C 56 % 0 lf 1001,7 hPa 0,0 l/m 0 min 0 min 0 W/m 27,0 km/h (4 Bft) 97,87 %
01.03.2018 22:18 -3,2 C -3,3 C -4,4 C 56 % 0 lf 1001,7 hPa 0,0 l/m 0 min 0 min 0 W/m 29,3 km/h (5 Bft) 97,83 %
01.03.2018 22:20 -3,2 C -3,3 C -4,4 C 56 % 0 lf 1001,7 hPa 0,0 l/m 0 min 0 min 0 W/m 31,5 km/h (5 Bft) 94,92 %
01.03.2018 22:22 -3,2 C -3,3 C -5,0 C 56 % 0 lf 1001,7 hPa 0,0 l/m 0 min 0 min 0 W/m 22,5 km/h (4 Bft) 97,14 %
01.03.2018 22:24 -3,2 C -3,3 C -5,0 C 56 % 0 lf 1001,8 hPa 0,0 l/m 0 min 0 min 0 W/m 31,5 km/h (5 Bft) 97,87 %
01.03.2018 22:26 -3,3 C -3,3 C -5,0 C 56 % 0 lf 1001,8 hPa 0,0 l/m 0 min 0 min 0 W/m 18,0 km/h (3 Bft) 100,00 %
01.03.2018 22:28 -3,3 C -3,9 C -5,0 C 56 % 0 lf 1001,7 hPa 0,0 l/m 0 min 0 min 0 W/m 22,5 km/h (4 Bft) 95,74 %
01.03.2018 22:30 -3,3 C -3,9 C -5,0 C 56 % 0 lf 1001,8 hPa 0,0 l/m 0 min 0 min 0 W/m 24,8 km/h (4 Bft) 97,83 %
01.03.2018 22:32 -3,3 C -3,3 C -5,0 C 56 % 0 lf 1001,7 hPa 0,0 l/m 0 min 0 min 0 W/m 33,8 km/h (5 Bft) 97,87 %
01.03.2018 22:34 -3,3 C -3,3 C -5,0 C 56 % 0 lf 1001,6 hPa 0,0 l/m 0 min 0 min 0 W/m 20,3 km/h (4 Bft) 100,00 %
01.03.2018 22:36 -3,3 C -3,9 C -5,0 C 56 % 0 lf 1001,6 hPa 0,0 l/m 0 min 0 min 0 W/m 22,5 km/h (4 Bft) 97,87 %
01.03.2018 22:38 -3,3 C -3,9 C -5,0 C 56 % 0 lf 1001,6 hPa 0,0 l/m 0 min 0 min 0 W/m 22,5 km/h (4 Bft) 100,00 %
01.03.2018 22:40 -3,4 C -3,3 C -5,0 C 56 % 0 lf 1001,6 hPa 0,0 l/m 0 min 0 min 0 W/m 36,0 km/h (5 Bft) 97,87 %
01.03.2018 22:42 -3,4 C -3,9 C -5,0 C 56 % 0 lf 1001,6 hPa 0,0 l/m 0 min 0 min 0 W/m 33,8 km/h (5 Bft) 100,00 %
01.03.2018 22:44 -3,4 C -3,9 C -5,0 C 57 % 0 lf 1001,5 hPa 0,0 l/m 0 min 0 min 0 W/m 22,5 km/h (4 Bft) 100,00 %
01.03.2018 22:46 -3,4 C -3,9 C -5,0 C 57 % 0 lf 1001,5 hPa 0,0 l/m 0 min 0 min 0 W/m 24,8 km/h (4 Bft) 100,00 %
01.03.2018 22:48 -3,4 C -3,9 C -5,0 C 57 % 0 lf 1001,4 hPa 0,0 l/m 0 min 0 min 0 W/m 24,8 km/h (4 Bft) 97,87 %
01.03.2018 22:50 -3,5 C -3,9 C -5,0 C 57 % 0 lf 1001,5 hPa 0,0 l/m 0 min 0 min 0 W/m 31,5 km/h (5 Bft) 100,00 %
01.03.2018 22:52 -3,5 C -3,9 C -5,0 C 57 % 0 lf 1001,4 hPa 0,0 l/m 0 min 0 min 0 W/m 24,8 km/h (4 Bft) 97,22 %
01.03.2018 22:54 -3,5 C -3,9 C -5,0 C 57 % 0 lf 1001,4 hPa 0,0 l/m 0 min 0 min 0 W/m 40,6 km/h (6 Bft) 97,83 %
01.03.2018 22:56 -3,6 C -3,9 C -5,0 C 57 % 0 lf 1001,4 hPa 0,0 l/m 0 min 0 min 0 W/m 33,8 km/h (5 Bft) 93,62 %
01.03.2018 22:58 -3,6 C -3,9 C -5,0 C 57 % 0 lf 1001,4 hPa 0,0 l/m 0 min 0 min 0 W/m 33,8 km/h (5 Bft) 97,87 %
01.03.2018 23:00 -3,6 C -3,9 C -5,0 C 57 % 0 lf 1001,5 hPa 0,0 l/m 0 min 0 min 0 W/m 31,5 km/h (5 Bft) 95,74 %
01.03.2018 23:02 -3,6 C -3,9 C -5,0 C 57 % 0 lf 1001,5 hPa 0,0 l/m 0 min 0 min 0 W/m 31,5 km/h (5 Bft) 93,62 %
01.03.2018 23:04 -3,6 C -3,9 C -5,0 C 57 % 0 lf 1001,4 hPa 0,0 l/m 0 min 0 min 0 W/m 36,0 km/h (5 Bft) 93,62 %
01.03.2018 23:06 -3,6 C -3,9 C -5,0 C 57 % 0 lf 1001,4 hPa 0,0 l/m 0 min 0 min 0 W/m 24,8 km/h (4 Bft) 95,65 %
01.03.2018 23:08 -3,6 C -3,9 C -5,0 C 57 % 0 lf 1001,3 hPa 0,0 l/m 0 min 0 min 0 W/m 33,8 km/h (5 Bft) 91,49 %
01.03.2018 23:10 -3,7 C -3,9 C -5,0 C 57 % 0 lf 1001,3 hPa 0,0 l/m 0 min 0 min 0 W/m 31,5 km/h (5 Bft) 93,62 %
01.03.2018 23:12 -3,7 C -3,9 C -5,0 C 57 % 0 lf 1001,3 hPa 0,0 l/m 0 min 0 min 0 W/m 38,3 km/h (5 Bft) 93,62 %
01.03.2018 23:14 -3,7 C -3,9 C -5,0 C 57 % 0 lf 1001,3 hPa 0,0 l/m 0 min 0 min 0 W/m 22,5 km/h (4 Bft) 89,36 %
01.03.2018 23:16 -3,7 C -3,9 C -5,0 C 57 % 0 lf 1001,4 hPa 0,0 l/m 0 min 0 min 0 W/m 27,0 km/h (4 Bft) 91,30 %
01.03.2018 23:18 -3,7 C -3,9 C -5,6 C 58 % 0 lf 1001,4 hPa 0,0 l/m 0 min 0 min 0 W/m 22,5 km/h (4 Bft) 93,62 %
01.03.2018 23:20 -3,7 C -3,9 C -5,6 C 58 % 0 lf 1001,4 hPa 0,0 l/m 0 min 0 min 0 W/m 15,8 km/h (3 Bft) 91,53 %
01.03.2018 23:22 -3,8 C -3,9 C -5,6 C 58 % 0 lf 1001,3 hPa 0,0 l/m 0 min 0 min 0 W/m 20,3 km/h (4 Bft) 88,57 %
01.03.2018 23:24 -3,8 C -3,9 C -5,6 C 58 % 0 lf 1001,3 hPa 0,0 l/m 0 min 0 min 0 W/m 31,5 km/h (5 Bft) 93,62 %
01.03.2018 23:26 -3,8 C -3,9 C -5,0 C 58 % 0 lf 1001,4 hPa 0,0 l/m 0 min 0 min 0 W/m 20,3 km/h (4 Bft) 91,49 %
01.03.2018 23:28 -3,8 C -3,9 C -5,6 C 58 % 0 lf 1001,4 hPa 0,0 l/m 0 min 0 min 0 W/m 18,0 km/h (3 Bft) 93,48 %
01.03.2018 23:30 -3,8 C -3,9 C -5,6 C 58 % 0 lf 1001,3 hPa 0,0 l/m 0 min 0 min 0 W/m 24,8 km/h (4 Bft) 91,49 %
01.03.2018 23:32 -3,8 C -3,9 C -5,6 C 58 % 0 lf 1001,3 hPa 0,0 l/m 0 min 0 min 0 W/m 36,0 km/h (5 Bft) 89,36 %
01.03.2018 23:34 -3,9 C -3,9 C -5,6 C 58 % 0 lf 1001,3 hPa 0,0 l/m 0 min 0 min 0 W/m 27,0 km/h (4 Bft) 89,36 %
01.03.2018 23:36 -3,9 C -3,9 C -5,6 C 58 % 0 lf 1001,3 hPa 0,0 l/m 0 min 0 min 0 W/m 29,3 km/h (5 Bft) 91,49 %
01.03.2018 23:38 -3,9 C -4,4 C -5,6 C 58 % 0 lf 1001,2 hPa 0,0 l/m 0 min 0 min 0 W/m 31,5 km/h (5 Bft) 85,11 %
01.03.2018 23:40 -3,9 C -4,4 C -5,6 C 58 % 0 lf 1001,2 hPa 0,0 l/m 0 min 0 min 0 W/m 33,8 km/h (5 Bft) 89,13 %
01.03.2018 23:42 -3,9 C -4,4 C -5,6 C 58 % 0 lf 1001,3 hPa 0,0 l/m 0 min 0 min 0 W/m 40,6 km/h (6 Bft) 95,74 %
01.03.2018 23:44 -4,0 C -4,4 C -5,6 C 58 % 0 lf 1001,2 hPa 0,0 l/m 0 min 0 min 0 W/m 33,8 km/h (5 Bft) 91,49 %
01.03.2018 23:46 -4,0 C -4,4 C -5,6 C 58 % 0 lf 1001,2 hPa 0,0 l/m 0 min 0 min 0 W/m 18,0 km/h (3 Bft) 91,49 %
01.03.2018 23:48 -4,0 C -4,4 C -5,6 C 58 % 0 lf 1001,1 hPa 0,0 l/m 0 min 0 min 0 W/m 36,0 km/h (5 Bft) 93,62 %
01.03.2018 23:50 -4,0 C -4,4 C -5,6 C 58 % 0 lf 1001,1 hPa 0,0 l/m 0 min 0 min 0 W/m 27,0 km/h (4 Bft) 93,10 %
01.03.2018 23:52 -4,1 C -4,4 C -5,6 C 58 % 0 lf 1001,0 hPa 0,0 l/m 0 min 0 min 0 W/m 22,5 km/h (4 Bft) 91,43 %
01.03.2018 23:54 -4,1 C -4,4 C -5,6 C 58 % 0 lf 1001,1 hPa 0,0 l/m 0 min 0 min 0 W/m 31,5 km/h (5 Bft) 93,62 %
01.03.2018 23:56 -4,1 C -4,4 C -5,6 C 59 % 0 lf 1001,1 hPa 0,0 l/m 0 min 0 min 0 W/m 24,8 km/h (4 Bft) 95,74 %
01.03.2018 23:58 -4,1 C -4,4 C -5,6 C 59 % 0 lf 1001,1 hPa 0,0 l/m 0 min 0 min 0 W/m 33,8 km/h (5 Bft) 93,62 %
_ Min-Zeit 04:30 03:14 04:26 14:06 00:00 23:52 - - - - 04:24 23:38
Minimum _ -7,9 C -8,3 C -9,4 C 40 % 0 lf 1001,0 hPa - - - - 11,3 km/h (2 Bft) 85,11 %
_ Max-Zeit 15:04 14:56 13:26 00:30 00:00 00:00 00:00 09:08 00:00 13:00 12:10 00:02
Maximum _ 2,2 C 6,7 C 2,2 C 69 % 0 lf 1014,1 hPa 0,0 l/m 4 min 0 min 594 W/m 60,8 km/h
O (7 Bft)
100,00 %
Durchschnitt _ -3,6 C -2,9 C -4,3 C 56 % 0 lf 1006,5 hPa #0,0 l/m #8:36 h #0 min. 231 W/m 33,3 km/h (5 Bft) 96,20 %
© 2018 W. Hausmann